GFSSE_sfc_temp_000.txt.gz
Temp
63 67 73 74 74 74 74 74 74 74 74 75 75 75 75 75 75 75 75 74 76 76 76 76 77 77 77 77 76 75 75 75 75 76 76 77 78 77 77 75 75 75 75
65 67 72 73 74 74 74 74 74 74 74 75 74 74 74 75 75 74 73 73 74 75 76 76 76 76 76 75 74 74 74 74 73 74 75 77 77 78 77 75 74 74 75
66 67 69 72 73 74 75 75 74 75 75 74 74 74 74 75 75 74 72 72 73 74 74 74 75 76 75 74 73 73 74 74 73 74 75 72 71 77 77 74 74 74 75
67 67 69 72 73 73 74 74 75 75 75 74 74 74 74 74 74 74 72 71 72 73 73 74 75 75 74 72 72 73 72 72 72 73 72 71 72 76 77 75 74 75 75
66 67 69 71 72 72 73 73 73 73 73 73 73 74 73 74 74 73 71 71 71 72 73 74 75 75 73 72 70 70 71 72 71 70 69 70 70 74 77 76 74 74 74
64 65 68 70 71 72 72 72 72 72 72 72 72 72 73 73 73 72 70 70 71 72 73 73 74 72 71 70 69 70 70 70 68 68 68 69 70 73 76 75 73 73 73
63 65 67 69 70 72 72 72 72 71 71 71 72 72 72 72 71 70 70 70 70 71 71 71 70 69 69 69 69 68 69 68 67 68 68 68 69 73 75 75 74 73 73
64 65 66 70 70 70 71 71 70 70 70 70 71 71 71 70 70 70 69 69 70 70 70 69 68 68 68 68 68 68 67 67 68 66 67 67 68 74 74 75 73 73 73
65 64 64 65 68 69 68 68 68 69 69 69 69 69 68 68 68 68 68 69 69 69 68 68 67 67 68 67 67 66 65 66 64 64 66 66 70 72 74 74 74 73 73
64 64 63 63 64 63 63 67 67 68 68 68 68 68 67 67 67 67 66 67 68 67 67 67 66 66 65 65 65 64 65 64 62 62 63 64 68 72 74 74 74 73 72
64 63 63 63 62 61 62 65 67 68 68 67 67 67 64 61 60 59 65 66 66 66 66 65 65 64 63 62 63 63 62 59 62 61 61 66 68 71 73 74 73 72 72
62 63 62 62 62 61 67 63 62 64 63 64 63 62 60 59 58 61 63 65 65 65 64 64 63 62 59 55 55 59 56 57 58 59 61 65 67 70 72 72 72 72 71
62 63 63 63 62 62 62 61 59 60 61 61 62 61 59 59 57 58 56 57 56 60 55 56 55 54 54 54 54 55 55 56 56 58 60 63 66 68 70 71 72 72 71
62 63 63 62 62 61 61 61 60 60 60 60 60 60 58 57 56 56 56 56 56 55 54 54 54 54 54 55 55 55 55 55 56 57 59 62 64 66 69 70 71 72 70
61 61 61 60 60 60 60 59 59 59 60 60 60 59 58 57 56 56 56 55 55 55 54 54 52 52 52 53 53 54 54 55 56 56 56 61 62 65 67 69 70 71 72
60 61 59 59 59 59 57 57 57 57 58 58 58 58 58 57 56 55 55 55 54 54 53 51 50 50 49 50 52 53 53 53 54 54 54 55 60 62 64 66 68 69 70
61 60 59 58 59 58 58 58 56 56 57 56 56 57 57 57 56 56 55 54 54 53 52 50 50 49 49 50 50 50 51 52 53 53 52 54 55 58 61 63 65 67 67
59 59 58 62 58 57 57 56 56 56 55 55 55 55 56 56 55 54 52 52 53 51 50 49 48 48 48 47 47 48 49 50 51 52 52 52 52 54 57 60 63 64 65
59 59 58 58 58 57 56 56 55 55 54 54 53 53 54 55 55 52 52 52 51 50 49 49 47 47 47 47 48 49 48 49 50 53 52 52 52 53 54 58 60 61 62
56 58 58 57 57 57 54 53 52 52 52 52 52 53 54 54 54 53 52 52 50 49 48 47 47 46 47 47 51 50 47 48 48 49 50 52 51 52 52 53 54 55 59
55 57 58 57 57 55 53 53 52 52 52 52 52 54 53 54 54 54 53 51 50 50 52 48 47 47 46 45 45 45 45 46 47 48 49 48 50 50 52 52 51 52 54
57 57 57 57 57 55 53 52 52 51 51 51 52 52 53 53 54 55 54 53 52 52 48 48 47 45 45 44 44 41 41 44 45 47 47 49 48 49 50 51 51 52 53
55 55 56 56 56 55 54 52 52 51 51 52 53 52 54 53 55 54 55 54 53 52 52 51 49 46 47 43 43 44 38 37 39 43 46 47 46 46 47 48 50 51 51
54 54 55 55 55 56 54 52 50 49 49 52 52 53 56 53 51 53 54 53 53 53 52 50 51 48 44 42 42 46 43 42 38 38 43 45 46 47 45 45 47 49 50
52 51 51 53 54 54 53 51 49 50 49 50 51 49 51 50 48 49 51 52 50 49 48 48 46 44 46 43 43 42 41 40 40 38 36 40 44 45 45 44 44 45 48
51 51 51 53 53 53 52 50 48 46 47 48 51 47 47 45 44 44 45 45 44 44 43 43 45 45 43 45 43 43 42 41 39 37 35 37 38 42 44 45 44 45 45

GFSSE_sfc_temp_006.txt.gz
Temp
85 86 74 76 76 75 75 75 75 75 75 76 76 76 76 75 74 74 74 74 75 76 77 77 77 78 78 78 77 78 77 77 77 78 78 79 78 78 77 76 76 85 75
87 86 73 75 76 76 75 75 75 75 76 76 76 75 75 75 74 74 74 74 74 76 76 76 76 76 77 76 75 75 76 75 75 76 77 78 78 78 77 76 76 81 75
87 87 86 74 76 76 75 75 75 75 76 75 75 76 76 75 74 73 73 73 74 75 76 76 76 76 75 74 73 74 73 74 75 75 76 88 90 78 77 75 76 75 76
86 87 86 72 74 76 75 75 75 75 75 75 75 75 75 75 74 73 72 72 73 74 75 75 75 74 73 72 73 72 72 73 73 74 85 87 86 78 77 76 76 75 75
86 86 83 72 73 74 74 75 75 75 75 74 74 74 74 74 73 72 72 72 72 73 74 74 73 72 71 71 71 71 71 72 73 76 87 87 88 80 77 76 76 75 74
86 86 76 71 72 73 73 73 73 73 72 72 73 73 74 73 72 72 71 71 72 72 72 72 71 71 70 70 70 71 71 71 71 87 85 84 82 77 76 76 74 75 73
87 86 85 71 72 73 73 73 73 72 72 72 72 72 72 72 71 71 71 71 71 71 71 71 70 70 69 69 70 70 70 70 81 86 87 83 82 75 76 74 74 74 74
86 85 85 72 71 72 72 72 71 71 71 71 71 71 71 71 71 71 70 70 70 70 69 69 69 69 68 68 68 67 67 68 79 83 82 84 71 73 75 75 72 73 73
87 86 86 85 78 70 70 70 70 70 71 70 70 69 69 69 69 69 69 69 69 69 69 68 68 67 67 67 67 66 66 67 81 84 82 84 70 72 73 72 70 71 72
85 86 84 84 85 84 83 69 69 70 69 69 69 69 68 68 68 68 69 69 68 68 67 67 66 66 65 65 65 65 66 69 82 83 86 79 69 72 73 72 71 69 71
84 83 83 85 84 84 85 80 71 69 69 69 71 68 70 84 81 78 67 67 67 67 66 66 65 64 64 65 64 64 65 83 81 84 85 67 68 71 72 72 71 71 71
82 83 85 82 82 83 85 84 83 83 86 83 82 80 83 79 80 76 71 66 65 65 65 64 64 64 68 81 81 70 81 79 81 81 82 65 67 70 71 71 71 71 71
85 86 84 81 81 81 85 87 88 88 85 85 80 80 80 79 80 80 80 80 78 70 79 76 77 79 75 76 78 77 78 77 81 82 73 65 66 68 70 70 71 71 70
86 86 85 83 81 80 85 87 87 85 85 83 83 79 79 80 79 78 79 79 78 79 76 77 77 74 74 74 74 74 75 77 81 81 72 64 64 67 68 69 70 70 71
85 85 85 83 81 82 80 84 83 81 84 81 81 81 80 79 78 79 78 79 78 78 78 76 76 75 74 74 74 74 74 74 75 79 80 63 63 64 66 68 68 69 70
86 86 85 83 82 83 81 81 82 83 82 83 82 81 78 78 77 78 78 78 79 79 78 77 76 75 75 74 74 73 73 75 75 75 79 74 62 62 64 66 67 67 68
87 86 84 83 83 81 80 82 83 85 81 82 82 79 78 78 78 76 77 77 78 78 76 76 74 74 74 75 73 74 73 73 74 73 75 76 71 61 62 64 65 66 66
86 84 85 83 83 81 82 83 85 86 83 83 82 80 78 77 76 76 77 77 78 77 77 76 75 74 73 73 73 74 74 74 73 72 74 74 76 78 63 62 63 63 64
86 84 84 83 84 82 81 83 82 80 82 84 81 81 79 77 76 75 76 76 76 76 75 75 74 73 72 73 74 74 74 74 74 75 74 72 72 74 76 60 61 61 62
83 84 85 84 81 80 83 81 83 81 83 81 81 80 77 77 75 74 75 74 74 74 74 74 72 73 72 71 74 74 73 74 74 73 73 74 73 72 73 72 72 70 61
80 81 82 80 75 80 81 78 79 77 79 79 79 75 74 74 74 72 73 73 73 72 71 70 70 69 69 71 68 69 71 72 70 72 73 73 73 72 72 71 73 75 72
78 78 77 76 76 77 79 77 75 74 76 76 77 75 75 72 72 72 71 71 71 71 69 69 68 67 69 70 65 66 62 68 71 70 72 71 70 72 71 70 69 69 69
73 74 75 75 74 73 74 77 78 78 76 75 74 74 72 71 71 70 69 69 68 68 68 68 68 66 65 68 69 64 60 60 66 72 67 69 68 68 70 69 67 67 67
72 73 73 73 74 72 72 72 69 70 68 69 69 71 70 70 69 69 68 67 66 67 65 66 68 66 65 63 67 69 66 65 60 58 66 66 67 66 65 67 67 66 66
71 71 71 72 72 72 71 69 70 67 68 69 69 67 68 69 69 68 66 64 64 65 64 62 62 62 63 62 63 63 59 62 62 57 58 59 64 66 66 64 64 65 65
71 70 70 71 70 70 70 68 65 64 65 65 65 65 66 66 67 66 64 63 62 62 61 61 60 58 58 58 57 56 55 47 51 54 55 58 59 61 63 63 62 62 64

GFSSE_sfc_temp_009.txt.gz
Temp
90 85 75 77 77 76 76 76 75 75 76 76 76 75 75 75 74 75 75 75 76 77 77 77 77 77 77 78 77 76 77 76 77 79 79 79 79 78 77 77 76 81 75
92 88 75 76 76 76 76 75 75 76 76 76 76 75 75 74 74 74 74 75 75 76 76 76 77 77 76 76 74 75 75 75 75 76 77 78 79 79 77 77 78 79 74
91 89 86 75 76 76 76 76 76 76 76 76 76 76 75 75 74 73 73 73 74 75 76 76 76 75 75 74 74 73 73 73 74 75 76 83 85 76 77 76 77 76 76
92 92 86 73 74 76 75 76 76 76 76 75 75 75 75 75 74 73 73 73 74 74 75 75 75 73 73 72 73 73 73 73 73 73 82 87 87 78 77 76 76 76 76
91 90 81 73 73 74 74 75 76 75 75 74 74 75 75 74 73 73 72 72 73 74 74 74 73 72 71 71 71 72 72 72 72 75 85 84 82 77 78 75 76 76 75
92 88 74 72 73 74 74 74 74 73 73 73 74 74 74 73 73 72 72 72 73 73 73 72 72 71 70 70 71 71 71 71 70 83 84 78 76 77 77 76 75 75 75
91 89 83 72 73 74 74 74 73 73 73 73 73 73 73 72 72 72 71 71 71 71 71 71 70 70 69 69 69 69 70 70 77 84 81 74 80 75 76 74 73 73 73
89 89 86 73 73 73 73 73 72 72 72 72 72 72 72 71 71 71 71 70 70 70 70 69 69 69 68 68 68 68 68 68 78 83 80 80 72 73 75 75 72 71 72
91 90 89 87 78 71 71 71 71 71 71 71 70 70 70 70 70 70 70 70 70 69 69 68 68 68 68 67 67 67 67 68 76 81 80 74 70 73 74 73 72 72 72
90 90 89 88 90 87 82 70 70 71 70 70 70 69 69 69 70 70 70 69 69 68 68 68 67 66 67 66 66 67 67 67 78 84 84 70 70 72 73 73 73 72 71
89 88 89 89 88 87 88 79 70 70 71 70 71 70 71 82 83 79 68 68 67 67 67 66 66 66 67 66 67 68 67 81 82 84 79 68 69 71 72 72 71 72 72
85 88 88 87 86 86 89 86 85 86 86 85 84 83 85 82 82 80 72 68 68 68 68 67 67 67 67 81 78 69 79 81 81 83 79 66 68 69 71 71 71 71 71
88 89 89 85 85 85 86 88 90 90 87 86 84 82 82 82 82 82 82 82 81 72 81 76 78 80 77 77 78 78 79 79 82 82 70 66 67 68 70 70 70 71 71
88 89 88 86 84 84 88 90 88 88 85 86 84 82 81 81 80 80 81 81 80 81 79 79 79 78 76 76 76 75 76 77 80 81 71 65 65 67 69 70 70 70 70
88 89 89 87 85 85 84 86 84 84 85 82 84 83 81 80 78 79 79 80 80 81 80 78 78 78 77 76 77 76 76 76 76 78 80 64 64 65 67 68 69 69 70
89 89 89 88 86 86 85 83 83 84 85 85 84 82 80 79 78 79 78 79 80 81 80 78 77 76 76 77 76 76 75 76 77 76 78 71 63 64 65 67 67 68 68
90 91 88 88 86 84 84 84 85 85 84 85 84 82 80 80 78 77 78 78 79 79 78 78 78 77 76 77 76 76 75 74 74 75 76 77 70 62 64 65 66 66 67
91 90 90 89 86 84 84 84 87 86 84 84 85 84 81 79 79 77 77 77 78 77 78 77 77 76 75 75 75 75 76 76 75 75 75 75 77 76 64 63 64 65 65
90 90 88 86 86 85 83 85 84 83 83 85 83 83 80 79 78 76 76 76 76 76 76 76 75 75 74 74 75 76 76 75 75 77 74 74 73 75 76 63 62 63 63
88 88 89 86 86 84 86 83 84 83 83 84 83 81 79 79 76 75 75 75 75 74 75 75 73 73 73 73 74 74 74 76 76 75 75 76 74 73 73 72 67 66 61
84 85 86 83 80 83 83 80 80 79 80 80 81 78 77 76 75 73 74 74 73 72 72 71 71 69 70 72 70 70 72 72 72 74 75 75 74 74 72 72 73 74 67
82 81 81 80 79 81 81 79 77 76 78 78 79 77 77 74 73 73 71 71 71 70 69 69 68 67 69 70 66 67 62 67 72 73 73 72 71 74 73 72 71 71 72
77 78 79 78 77 76 78 79 78 78 78 77 75 75 75 73 73 72 71 69 68 68 68 67 67 65 64 67 68 64 58 58 66 72 71 71 70 71 72 72 70 70 69
75 76 77 76 76 76 74 74 71 71 69 71 72 73 72 72 72 71 70 68 66 66 65 66 67 64 63 61 65 67 66 64 57 55 66 67 68 66 68 70 70 68 68
74 73 75 75 75 74 74 72 70 69 70 72 71 68 68 70 69 70 68 67 64 65 64 63 62 61 61 60 60 60 59 59 58 49 48 58 63 66 63 62 68 68 67
74 73 74 74 74 73 72 71 69 65 64 66 66 65 66 66 66 66 66 64 63 63 62 61 61 59 55 55 56 54 50 47 47 45 44 50 54 53 57 61 59 63 64

GFSSE_sfc_temp_012.txt.gz
Temp
81 79 75 77 76 76 76 75 75 75 76 76 75 75 75 75 75 75 75 75 75 77 77 77 77 77 77 76 75 75 74 74 74 75 77 79 79 78 77 76 77 76 74
83 80 75 76 76 76 76 76 75 75 75 75 75 75 75 74 74 74 74 75 75 76 76 77 76 76 75 75 74 74 73 73 73 74 75 77 78 78 78 77 75 74 74
83 82 79 75 76 76 76 76 76 76 76 75 75 75 75 75 74 74 73 74 75 75 76 76 75 75 74 73 73 73 73 73 72 73 74 73 76 75 77 76 75 75 74
85 82 78 73 75 75 75 75 76 76 75 75 75 75 75 74 74 73 73 73 74 75 75 75 74 73 73 72 72 72 72 72 71 72 73 78 78 72 76 76 76 76 76
82 79 75 72 73 74 74 74 75 74 74 74 74 75 75 74 74 73 73 73 73 74 74 74 73 72 71 70 71 71 71 71 71 72 73 76 74 72 74 75 76 75 75
81 77 72 71 72 73 73 73 73 73 73 73 74 74 74 73 73 72 72 72 72 72 72 72 71 70 70 69 69 70 70 70 69 71 74 72 69 71 69 75 75 75 74
80 78 75 71 72 73 73 73 72 72 72 73 73 73 73 73 72 71 71 71 71 71 71 71 70 70 69 69 69 68 68 68 69 70 71 65 64 70 67 74 73 73 73
82 77 77 72 72 72 72 72 71 71 71 71 71 72 71 71 71 71 71 70 70 70 70 69 69 69 68 68 68 68 67 67 71 72 75 66 66 67 73 75 73 72 73
86 83 80 76 72 71 70 70 70 70 70 70 70 70 70 70 70 70 70 70 70 69 69 69 68 68 68 68 68 67 67 67 66 70 76 68 72 74 74 74 73 72 72
85 85 81 78 78 74 71 70 70 70 70 70 70 70 69 69 70 70 70 69 69 69 68 68 68 68 68 68 68 68 67 67 67 71 70 67 71 73 73 73 72 72 71
84 82 81 82 79 77 75 73 70 70 70 70 70 69 68 72 71 70 69 69 69 69 69 68 68 68 67 66 67 66 67 68 71 71 68 68 71 72 72 72 71 71 71
80 82 81 79 78 79 86 73 75 77 74 73 75 74 75 74 74 75 72 68 68 68 68 67 67 67 66 67 66 65 64 70 69 70 64 67 70 70 71 71 71 71 71
82 82 81 78 78 79 78 77 78 77 76 76 75 75 74 74 73 71 69 69 66 66 67 66 68 65 69 67 66 66 67 68 66 69 65 66 68 69 70 70 71 71 71
82 83 81 79 77 77 78 77 77 76 75 74 74 74 71 70 70 69 69 69 68 69 68 68 67 68 68 69 68 66 66 66 66 66 61 65 67 68 69 70 70 70 70
81 82 81 79 77 77 77 75 75 74 73 73 74 72 71 70 68 69 68 68 68 68 68 66 67 67 66 67 67 67 67 66 67 66 62 64 65 67 68 70 70 70 70
84 83 80 80 77 78 77 75 74 73 73 73 72 72 72 69 68 68 67 67 67 68 67 66 66 66 65 66 66 66 66 66 66 65 65 60 64 65 66 68 69 69 70
85 85 81 78 77 77 77 75 74 74 75 73 73 72 73 71 69 68 66 66 67 67 67 66 66 66 65 67 66 66 65 65 65 65 65 64 60 62 64 66 67 68 68
85 72 70 83 78 77 76 75 76 75 73 73 72 72 71 72 71 67 66 65 66 66 65 64 64 63 63 63 62 63 64 65 65 64 65 64 64 65 62 63 65 66 67
83 82 81 79 76 76 76 76 75 74 73 72 71 70 70 70 69 66 65 64 65 64 63 63 63 62 61 61 64 65 63 63 63 70 65 64 63 65 62 62 63 63 64
83 82 82 77 73 76 75 75 74 73 72 72 71 70 70 69 67 65 64 63 64 62 61 61 59 61 60 61 67 67 64 65 66 63 62 67 64 64 64 62 59 59 61
80 77 75 69 73 74 74 70 68 67 69 69 71 70 70 67 66 64 62 61 61 60 59 59 58 57 58 59 59 60 61 63 62 65 66 63 64 65 64 64 60 60 60
74 73 75 74 72 71 72 69 68 68 68 69 69 67 68 66 65 66 62 61 60 58 57 57 56 55 55 56 55 55 52 57 61 62 65 66 65 67 66 65 65 63 61
71 71 73 72 70 68 68 71 68 68 66 66 66 65 66 65 66 64 61 60 58 57 55 55 55 54 52 54 54 52 48 48 53 58 60 62 58 62 60 63 65 65 62
68 70 71 72 71 70 68 67 65 64 62 64 64 64 64 64 62 62 61 59 57 56 54 54 58 53 52 50 52 56 51 48 43 45 52 54 57 57 57 60 62 63 62
69 68 70 71 71 70 69 66 63 62 61 61 60 60 60 60 60 60 59 56 55 55 54 53 52 51 50 47 47 46 46 46 47 41 41 43 48 50 51 52 53 54 54
70 69 69 70 71 70 68 65 62 60 60 59 58 57 56 57 56 56 58 55 54 54 53 52 51 48 46 46 46 45 44 44 43 42 40 40 39 43 46 46 49 49 50

GFSSE_sfc_temp_015.txt.gz
Temp
72 73 74 75 75 75 74 74 74 74 75 75 75 75 75 75 74 74 75 75 75 76 77 77 76 76 76 75 74 74 73 73 73 74 75 77 77 77 76 75 75 76 75
73 75 73 74 75 75 75 74 74 74 75 75 75 74 74 74 74 74 74 75 75 76 76 76 75 75 75 74 73 73 73 72 72 73 74 75 76 77 78 75 74 75 75
73 75 76 73 74 75 75 75 75 75 75 75 75 74 74 74 74 73 73 74 75 75 75 75 75 74 74 73 72 72 72 72 72 72 73 71 71 76 76 75 74 74 75
75 74 74 73 74 74 74 74 74 75 75 75 75 74 74 74 73 73 73 73 74 74 74 74 74 73 72 71 71 71 71 71 70 71 70 71 76 73 70 75 75 75 75
72 73 73 72 72 73 73 73 73 73 73 73 74 74 74 74 73 73 72 72 73 73 73 73 72 71 70 69 69 70 70 70 70 70 68 67 69 73 72 72 73 75 73
68 69 70 71 72 73 73 73 73 72 72 72 73 73 73 73 73 72 71 72 72 72 72 72 71 70 69 69 69 69 68 68 69 65 64 68 68 72 71 71 70 73 73
66 68 70 70 71 72 73 73 72 71 71 72 72 72 72 72 72 71 71 71 71 70 70 70 70 69 69 68 69 68 68 67 67 64 64 64 66 71 72 69 69 72 72
68 68 70 71 71 71 71 71 70 70 70 71 71 71 72 71 71 71 70 70 70 70 69 69 69 69 68 68 68 67 67 67 68 64 66 64 69 71 71 70 70 72 72
71 67 67 69 70 69 69 69 69 70 70 70 70 70 70 70 70 70 70 70 70 69 69 69 68 68 68 68 67 67 66 66 64 64 70 64 70 71 71 74 73 72 72
72 71 68 67 68 66 67 68 68 69 69 69 70 69 69 69 69 69 69 69 70 69 69 69 68 68 67 67 67 66 66 66 64 65 65 65 71 73 73 73 72 72 71
75 73 70 70 68 67 66 69 69 69 69 69 69 69 67 66 67 68 67 68 69 69 68 68 68 67 66 66 66 66 66 62 64 65 62 68 72 73 73 72 71 71 71
72 72 72 72 69 69 77 68 66 69 67 67 67 66 66 65 65 69 68 68 69 68 68 68 67 67 66 62 63 65 61 63 63 63 62 68 71 72 72 71 71 71 71
74 73 72 72 71 71 70 66 66 66 65 66 68 68 68 67 66 64 63 64 61 65 62 65 64 63 62 62 63 62 63 63 61 62 63 66 69 71 71 71 71 71 70
72 73 72 71 72 70 69 68 68 68 67 66 67 68 65 63 63 63 63 64 62 61 61 62 61 63 63 65 64 63 63 62 61 60 60 65 67 70 71 71 71 71 70
73 73 72 71 70 71 69 66 67 66 67 66 66 67 65 63 63 63 62 62 62 62 62 62 62 63 63 64 64 63 63 63 63 62 58 64 65 68 70 71 71 71 71
77 75 71 69 69 71 68 67 66 65 67 65 64 65 66 63 62 62 62 62 62 61 61 61 61 60 60 61 62 63 63 62 63 62 61 58 63 65 67 70 71 71 71
75 69 67 66 68 67 69 69 67 67 68 64 65 66 66 66 63 62 60 60 61 61 61 61 60 60 60 62 60 61 61 62 61 62 62 59 59 62 64 66 68 69 69
69 69 68 70 66 64 65 67 67 66 66 65 64 63 64 64 63 60 60 59 59 60 59 59 58 58 57 57 57 58 58 60 61 61 62 61 59 62 61 63 65 67 68
70 68 64 64 65 66 66 66 65 67 67 65 63 63 63 63 62 59 59 58 58 58 57 57 56 54 54 55 59 59 57 57 58 64 61 60 59 59 59 61 63 63 65
69 69 66 64 64 65 66 65 63 63 63 63 62 63 62 61 62 59 59 57 58 56 55 54 53 54 53 53 60 61 56 56 57 57 60 64 59 61 59 59 60 61 61
65 67 64 62 62 64 62 61 60 60 62 62 62 62 62 62 63 60 57 57 55 55 53 53 52 52 52 52 50 52 52 54 54 55 55 56 58 60 60 59 59 59 60
62 62 63 64 62 63 61 60 61 61 61 61 62 61 61 60 60 63 55 54 54 53 52 51 50 49 49 50 47 48 44 49 51 54 54 57 54 56 59 63 61 60 59
60 61 63 63 63 62 62 61 61 60 59 59 58 61 60 58 58 56 55 53 52 51 50 49 49 48 46 47 48 45 40 38 43 48 52 50 48 51 50 53 55 60 59
59 61 62 63 63 65 62 58 57 54 54 55 55 54 56 55 55 56 54 52 51 50 49 48 53 47 46 43 45 50 44 44 40 39 45 48 48 48 46 48 49 52 54
61 60 60 62 63 63 61 59 56 55 55 55 54 52 52 52 54 54 54 51 50 49 47 46 45 44 44 43 43 45 45 42 40 36 37 38 43 43 43 44 46 47 50
60 60 61 62 62 62 63 61 57 54 54 51 50 49 49 50 50 51 52 49 48 47 46 46 46 45 47 46 46 45 43 42 42 40 35 38 40 39 43 43 44 45 47

GFSSE_sfc_temp_018.txt.gz
Temp
70 72 73 74 74 74 74 73 73 74 74 75 75 75 74 74 74 74 74 75 75 76 76 76 75 75 75 74 74 73 73 73 72 73 75 77 78 78 77 75 74 76 73
72 73 73 74 74 74 74 74 74 74 74 75 74 74 74 74 74 74 74 75 75 75 75 75 75 74 74 73 72 72 72 71 71 72 73 75 76 78 77 75 74 74 74
72 73 74 73 74 74 74 74 74 75 75 75 74 74 73 73 73 73 73 73 74 75 75 75 74 74 73 72 71 71 71 71 71 71 73 69 70 76 76 75 74 74 74
73 73 73 73 73 74 74 74 74 75 75 74 74 74 73 73 73 73 73 73 73 74 74 74 74 73 71 70 70 70 70 70 70 71 68 70 72 74 74 75 75 75 74
71 72 73 72 72 73 73 73 73 73 73 73 73 74 73 73 73 72 72 72 72 73 73 73 73 71 70 69 69 69 69 69 69 68 65 67 68 73 73 73 72 75 74
69 70 70 71 71 73 73 73 72 72 72 72 73 73 73 73 72 71 71 71 71 72 72 72 71 70 69 68 69 69 68 68 68 63 64 69 68 73 73 72 70 71 73
67 69 70 69 71 72 73 73 72 71 71 71 72 72 72 72 71 71 70 70 70 70 71 71 70 70 69 68 69 68 67 67 65 62 63 64 65 74 73 72 72 71 72
66 67 69 71 70 71 71 71 70 70 70 71 71 71 72 71 71 71 70 70 70 70 70 70 70 69 69 68 68 67 66 66 65 62 64 62 66 72 74 73 72 71 72
65 65 65 67 69 69 69 69 69 70 70 70 70 70 70 70 70 70 70 70 70 70 70 70 69 68 68 68 68 67 66 66 62 62 67 63 69 72 73 71 71 71 72
64 65 63 64 65 65 65 68 68 68 69 69 69 69 68 69 69 69 69 70 70 70 70 69 69 68 68 67 66 66 65 65 62 63 63 63 70 72 73 73 73 72 71
66 65 64 64 64 64 65 68 68 69 69 68 69 69 66 65 66 66 67 68 69 69 69 68 68 67 66 66 66 65 65 61 62 62 61 66 71 73 73 72 71 71 71
66 66 66 65 65 65 73 66 65 68 66 66 66 65 64 63 63 67 66 68 68 68 68 68 67 66 65 61 61 64 60 61 60 62 61 66 70 73 73 72 71 70 70
70 70 68 68 67 66 68 63 63 64 63 64 65 64 63 64 62 62 61 62 60 64 61 62 62 61 61 60 60 60 61 61 58 59 63 66 68 71 73 72 71 71 70
70 70 69 68 66 65 65 64 64 64 64 63 64 64 62 61 60 60 59 60 60 59 59 59 58 60 61 62 62 61 61 60 59 59 59 65 66 70 73 73 72 71 71
70 71 68 67 66 66 66 64 64 64 63 63 63 64 62 61 60 60 60 59 59 59 58 58 59 59 59 60 61 61 61 61 60 60 57 62 64 67 70 72 73 72 72
72 67 65 65 66 68 66 67 65 64 63 63 62 64 64 61 60 59 59 59 58 58 58 57 57 57 57 58 58 60 60 60 60 60 59 57 62 64 67 70 72 72 72
73 69 67 66 65 66 68 67 66 64 64 62 62 62 62 61 60 58 57 57 57 57 57 57 56 56 56 58 56 57 58 59 58 59 59 59 58 61 63 66 68 70 71
67 69 66 69 64 64 65 65 66 66 62 62 61 61 61 61 60 57 57 56 56 56 56 55 54 54 53 53 52 54 54 56 57 58 57 57 58 61 61 63 65 67 68
68 66 63 62 63 63 64 63 62 62 61 59 59 59 60 60 60 57 56 55 55 55 53 53 53 50 50 51 55 54 53 53 54 60 57 57 56 57 59 61 62 64 65
62 61 61 61 61 62 62 60 58 59 59 59 58 59 60 59 59 56 55 55 54 53 52 51 50 51 49 49 56 55 50 51 52 51 52 57 56 56 55 56 56 59 61
61 60 59 59 60 61 59 57 57 56 58 57 58 59 58 58 58 57 55 53 52 51 50 50 49 48 48 48 46 50 48 50 49 49 50 50 52 54 53 54 55 57 57
58 58 59 60 59 59 58 55 56 56 56 56 59 59 57 56 56 57 51 50 50 49 49 48 47 46 46 48 44 43 42 47 45 49 48 49 45 49 50 53 52 54 55
56 58 60 60 61 59 59 59 58 58 56 54 54 53 54 56 55 52 51 50 49 48 46 45 45 45 43 44 45 43 39 37 41 45 46 45 43 44 44 47 50 52 55
55 57 59 61 61 61 59 57 56 53 53 52 50 50 50 52 52 52 51 48 47 46 45 45 47 43 43 41 44 48 47 45 40 38 41 45 43 44 42 43 44 47 49
57 57 57 59 60 59 57 56 54 52 51 50 49 49 50 50 50 50 49 46 45 45 44 43 43 42 42 41 41 41 41 41 43 38 36 38 40 41 41 41 41 43 46
56 57 56 58 58 59 56 55 53 51 50 48 47 47 50 49 46 46 47 44 44 43 42 42 42 42 41 41 41 40 39 37 38 36 37 37 37 37 39 40 40 41 44

GFSSE_sfc_temp_021.txt.gz
Temp
70 71 73 74 74 74 73 73 73 74 74 75 74 74 74 74 74 74 74 74 75 75 75 75 74 74 74 74 73 72 72 72 72 73 74 76 78 77 77 75 75 75 75
71 72 72 74 74 74 74 73 73 74 74 74 74 74 73 74 74 74 74 74 75 75 75 75 74 74 73 72 72 72 71 71 71 72 73 74 75 77 77 75 74 74 75
70 72 73 73 74 74 74 74 74 75 75 74 74 73 73 73 73 73 73 73 74 75 75 74 74 73 72 71 71 71 71 70 70 71 72 67 68 76 76 74 74 74 74
71 72 72 72 73 74 73 74 74 75 74 74 74 73 73 73 73 73 72 72 73 74 74 74 74 72 71 70 70 70 70 70 70 70 66 68 72 75 76 75 75 75 75
70 71 72 72 72 73 73 73 73 73 73 73 73 74 73 73 73 72 72 72 73 73 74 74 73 71 70 69 69 69 69 69 68 66 64 66 67 72 75 74 72 73 74
69 70 70 70 71 72 73 73 72 72 72 72 72 73 73 73 72 72 71 71 72 73 73 73 72 70 69 69 69 68 68 68 67 61 62 66 67 72 74 72 72 72 72
70 70 70 69 71 72 73 72 72 71 71 71 72 72 72 72 72 71 71 71 71 71 71 71 70 70 69 68 69 68 67 67 63 60 61 63 63 72 74 72 72 72 72
69 68 69 70 70 71 71 71 70 70 70 70 71 71 72 71 71 71 71 70 70 70 70 70 70 69 69 68 68 67 66 66 64 60 63 62 65 70 73 73 72 72 72
66 65 65 67 69 69 69 69 69 69 70 70 70 70 70 70 70 70 70 70 70 70 70 70 69 68 68 68 67 66 65 66 61 61 65 62 68 71 73 74 73 72 72
63 64 63 64 64 64 65 68 68 68 69 69 69 69 68 69 69 69 69 69 70 70 70 69 68 68 67 66 66 66 65 65 61 61 62 62 70 73 75 75 73 72 71
63 61 62 62 63 63 63 67 68 69 69 68 68 68 66 64 64 65 67 68 69 69 69 68 68 67 66 65 65 65 65 59 59 60 59 65 69 72 73 72 72 71 71
61 63 61 61 63 63 70 65 64 66 65 64 65 64 63 62 62 65 65 67 68 67 67 67 67 66 64 59 59 63 59 59 59 59 59 65 68 72 73 73 72 71 70
65 65 64 63 63 63 66 63 62 63 63 63 64 63 62 63 61 61 59 59 58 63 59 61 60 59 59 58 59 58 59 59 57 58 61 65 68 71 73 73 72 72 71
65 66 66 65 64 63 63 62 62 62 62 62 63 63 60 58 58 58 57 57 57 57 57 57 56 57 57 59 59 58 58 58 57 57 58 63 66 70 72 73 73 72 71
66 68 67 65 63 64 62 61 62 62 64 63 62 62 61 59 57 57 57 57 57 57 56 56 56 56 56 57 58 58 58 58 58 57 56 62 63 66 70 73 73 74 73
70 68 64 64 63 64 62 62 62 62 64 62 61 60 61 59 57 57 57 57 56 55 55 54 54 54 54 55 56 56 57 57 57 57 57 56 61 63 66 68 71 73 73
70 68 63 62 62 63 63 62 62 62 62 60 60 60 60 59 57 56 55 55 54 54 54 54 54 53 52 54 53 54 55 55 55 55 55 56 56 60 61 64 66 68 70
65 62 62 65 64 64 63 62 62 60 59 58 58 58 59 59 57 55 54 53 53 53 52 52 51 51 50 49 49 50 51 52 53 54 54 54 53 56 57 60 62 64 66
62 62 61 62 62 62 63 61 59 58 57 56 56 56 57 57 57 54 52 52 53 52 50 50 50 48 48 48 50 51 49 49 50 54 52 52 52 52 53 56 57 58 60
60 61 61 61 61 61 59 59 57 58 57 56 55 56 56 56 55 56 53 51 51 50 49 49 47 48 47 47 52 51 48 49 48 47 48 51 50 50 50 52 52 53 57
57 59 60 59 59 60 56 57 55 52 54 54 58 59 58 57 56 51 50 50 49 48 47 47 46 45 45 46 43 47 46 46 47 47 47 46 47 49 48 50 50 50 52
57 57 57 58 58 59 57 54 55 57 57 57 57 56 56 54 54 53 49 48 47 47 46 45 44 43 43 44 41 41 39 43 44 47 45 46 43 45 47 49 48 49 49
55 56 58 58 59 58 57 57 57 57 54 51 50 50 51 52 51 49 48 47 46 45 44 43 42 42 40 42 42 40 36 34 42 42 46 42 42 42 42 44 46 47 47
54 55 57 58 58 58 57 56 55 54 52 50 47 47 48 49 48 50 48 48 44 43 42 42 44 41 40 38 40 45 41 39 35 36 39 44 41 43 40 40 41 43 45
54 54 54 56 57 56 55 54 53 51 49 47 47 47 49 50 48 51 49 46 43 43 41 41 41 40 40 38 38 38 38 37 38 34 34 36 41 40 39 39 39 40 43
52 52 52 54 53 54 53 52 50 48 47 47 49 50 50 48 47 46 45 43 43 42 41 41 40 40 39 39 38 38 39 38 38 37 36 38 38 41 39 38 38 39 41

GFSSE_sfc_temp_024.txt.gz
Temp
68 70 73 74 74 74 73 73 73 74 74 75 74 74 74 74 74 74 74 75 75 75 75 75 74 74 74 73 73 72 72 71 71 72 74 75 77 78 77 75 75 75 74
70 70 72 73 74 74 74 73 73 74 74 74 74 73 73 74 74 74 74 75 75 75 75 75 74 74 73 72 71 71 71 71 71 71 73 73 74 77 77 75 74 74 75
69 71 72 73 73 74 74 74 74 75 74 74 73 73 73 73 73 73 73 74 75 75 75 74 74 73 72 71 71 71 70 70 70 71 71 68 69 76 76 74 74 74 74
70 70 71 72 73 73 73 74 74 75 74 74 73 73 73 73 73 73 73 73 74 75 75 74 73 72 71 70 70 70 70 70 69 69 66 68 71 75 76 75 74 75 74
69 70 71 71 72 73 73 73 73 73 73 73 73 73 73 73 73 72 72 72 73 74 74 74 73 71 70 70 69 69 69 69 68 65 64 66 67 71 75 74 72 73 73
68 69 70 70 71 72 73 73 72 72 71 72 73 73 73 73 73 72 71 72 73 73 73 73 72 71 69 69 69 69 68 68 66 62 62 64 65 71 74 74 72 72 72
70 69 69 69 71 72 73 73 72 71 71 71 72 72 73 73 72 71 71 71 71 72 72 72 71 70 69 69 69 68 67 67 62 61 61 63 63 71 73 74 72 71 72
70 71 70 70 71 71 71 71 70 70 70 71 71 71 72 71 71 71 71 71 71 71 71 70 70 69 69 68 68 67 66 66 64 62 63 63 67 71 74 74 72 72 72
70 68 69 67 69 69 69 69 69 69 70 70 70 70 70 70 70 70 70 71 71 70 70 70 69 68 68 67 67 66 65 66 60 62 65 63 69 72 75 75 73 72 71
64 64 63 64 65 64 65 68 68 68 69 69 69 69 68 69 69 69 69 69 70 70 70 69 68 68 67 66 66 66 65 64 60 60 61 62 70 73 74 74 73 72 71
62 62 61 62 62 62 63 66 68 69 69 68 68 68 66 63 63 64 67 68 68 68 68 68 67 66 65 64 64 64 64 58 59 59 59 65 69 72 73 73 72 71 71
60 61 60 61 61 61 68 64 63 65 64 64 64 64 63 62 62 64 64 66 66 66 66 66 66 65 62 58 58 61 58 58 58 58 59 65 69 72 73 73 72 71 71
61 62 61 61 61 61 64 61 61 62 62 62 63 62 62 62 61 60 58 57 57 62 58 59 59 57 57 57 57 57 58 58 57 57 59 64 66 69 72 73 73 72 71
61 64 62 61 61 61 61 61 61 61 61 61 62 62 60 58 58 56 56 56 56 56 56 55 55 56 56 57 57 57 57 57 57 57 57 62 64 68 70 71 72 73 72
62 62 62 62 61 62 61 61 60 61 62 62 61 61 59 57 56 56 55 55 55 55 54 53 54 54 54 55 55 55 55 56 56 57 55 61 62 64 67 69 70 71 71
64 63 62 61 61 62 61 61 60 60 61 61 59 59 59 57 56 55 54 54 53 53 52 52 52 52 52 53 53 54 54 54 54 54 55 54 59 61 62 64 65 66 68
64 62 60 61 61 60 61 61 61 62 61 59 59 58 58 57 55 54 52 52 52 52 52 52 52 52 51 52 51 52 53 52 53 53 53 53 53 57 59 60 61 62 63
60 60 61 63 61 60 60 59 60 58 58 57 56 55 56 56 54 52 52 51 52 52 51 50 49 49 48 48 47 49 50 51 51 52 52 52 51 53 54 58 59 59 60
60 61 60 60 60 60 59 57 57 55 56 55 54 54 55 55 55 52 53 51 54 50 48 49 48 47 47 47 50 50 48 48 49 52 50 50 50 50 51 54 55 56 57
60 61 60 60 59 58 57 56 56 57 54 54 55 57 55 57 55 55 53 50 49 48 47 46 46 46 46 45 50 50 47 47 47 46 47 50 49 49 48 49 49 51 54
59 61 61 60 59 58 55 55 53 52 52 54 54 56 56 55 52 49 48 47 47 46 45 45 44 44 44 44 43 44 44 46 45 46 46 46 46 47 48 48 49 48 49
57 58 57 58 58 57 55 53 53 52 56 55 53 50 51 50 50 50 47 46 46 46 45 43 42 42 42 42 40 39 37 41 43 47 44 46 43 45 46 48 47 47 47
53 55 57 57 57 56 55 53 52 52 51 49 48 47 48 49 49 48 47 46 45 45 43 41 41 40 39 40 41 39 35 33 38 42 45 43 42 42 43 45 46 46 46
51 53 54 55 55 55 55 54 53 50 48 46 46 46 46 48 49 49 47 47 44 43 42 41 43 40 39 37 39 43 40 39 36 36 41 43 43 43 43 41 43 43 44
51 50 52 54 54 53 53 52 49 46 45 45 45 48 50 50 50 48 46 44 42 41 41 40 39 39 39 38 37 37 37 37 37 36 34 37 43 46 42 41 40 41 43
52 54 52 54 52 52 51 50 49 47 46 45 46 49 48 45 44 44 44 42 42 41 40 39 39 39 38 37 37 36 36 35 34 33 32 35 35 38 41 42 40 40 41

GFSSE_sfc_temp_027.txt.gz
Temp
75 78 74 74 74 74 74 74 74 74 74 75 75 74 74 74 74 74 75 75 75 76 76 75 75 75 74 73 73 72 72 72 72 72 74 75 76 78 77 75 76 81 75
76 78 73 74 74 74 74 74 74 74 74 74 74 74 74 74 74 74 75 75 75 76 75 75 74 74 74 73 72 72 71 71 71 71 73 75 75 76 76 75 74 78 74
75 78 79 73 74 74 74 74 74 74 74 74 74 74 74 74 74 74 74 74 75 75 75 75 74 74 73 72 72 71 71 70 70 70 72 82 82 76 76 74 74 74 75
76 78 79 72 73 74 74 74 74 75 74 74 74 74 74 74 74 73 73 74 75 75 75 75 74 73 72 71 71 71 71 70 69 70 79 79 79 74 75 74 74 74 74
75 77 77 72 72 73 73 74 74 73 73 73 73 74 74 74 74 73 73 73 74 75 75 74 73 72 71 70 70 70 70 69 68 75 79 78 78 76 75 74 75 74 73
75 78 73 70 72 73 73 73 73 72 72 72 73 74 74 74 73 72 72 73 74 74 74 73 72 71 70 69 69 69 68 68 71 79 78 75 76 72 74 74 72 72 72
75 77 77 69 71 72 73 73 72 71 71 72 72 73 73 73 73 72 71 72 72 72 72 72 71 70 69 69 69 68 67 68 78 80 77 76 75 73 75 74 73 72 72
74 75 76 71 71 71 72 71 70 70 70 71 71 72 72 72 71 71 71 71 71 71 71 70 70 69 69 68 68 67 66 66 76 79 78 78 72 73 75 75 72 72 72
73 73 74 76 74 70 69 69 69 70 70 70 70 70 70 70 70 70 70 71 71 70 70 70 69 68 68 67 67 66 65 66 76 77 78 79 71 73 75 74 73 72 72
71 71 71 74 75 75 74 68 68 69 69 69 69 69 69 69 69 69 68 69 69 69 69 69 68 67 67 66 66 65 65 67 75 77 78 77 70 74 75 74 73 72 72
67 69 70 72 72 72 73 73 70 69 69 68 70 68 68 74 74 74 68 68 68 68 68 68 67 66 65 66 65 65 66 75 75 76 77 67 69 72 74 74 72 72 72
67 69 70 70 70 71 74 74 73 74 74 74 74 73 74 72 72 72 68 66 66 66 66 66 65 66 70 74 74 70 74 73 74 74 75 65 67 70 72 72 72 72 72
70 70 70 69 70 71 73 73 74 74 74 73 72 72 72 71 72 73 72 72 71 67 72 71 72 71 69 70 71 70 71 72 73 73 71 64 66 69 71 71 72 72 72
70 71 71 70 69 69 72 72 72 73 73 73 73 71 72 72 69 69 70 69 69 70 68 68 69 67 68 68 68 68 69 70 71 72 71 62 64 66 68 69 70 70 70
70 70 70 69 69 69 69 70 71 71 72 72 72 70 71 70 68 68 67 68 68 69 68 68 68 67 67 67 67 67 68 67 67 69 70 61 61 63 65 66 67 67 67
71 71 69 69 69 70 69 68 67 66 66 68 67 70 68 69 67 67 66 67 67 68 68 68 67 67 66 66 66 65 66 67 66 66 68 68 58 59 61 63 63 64 65
73 71 67 66 68 68 68 65 62 65 64 62 63 64 66 67 65 65 66 66 66 65 65 66 65 66 65 65 65 65 66 65 65 64 65 66 65 59 58 60 60 61 62
71 69 68 66 65 63 63 59 59 61 60 60 60 62 65 65 66 63 59 63 63 60 60 63 63 63 63 63 63 65 65 65 62 62 64 64 64 65 62 57 57 59 59
69 66 65 66 65 63 58 56 57 59 59 61 63 66 65 60 62 60 57 61 61 61 61 61 61 60 60 60 61 63 63 64 63 64 61 60 60 61 62 59 57 57 57
67 66 65 65 61 57 58 58 59 59 61 63 62 59 59 62 62 63 61 60 62 61 59 59 58 59 59 57 59 60 60 62 63 61 59 61 60 59 59 59 60 60 56
65 65 65 60 58 57 60 59 59 60 59 58 61 63 62 62 61 61 62 61 60 59 57 56 57 55 57 56 56 56 58 59 57 59 59 58 58 58 58 58 59 59 59
65 65 65 65 63 62 66 66 66 64 64 63 61 60 61 60 61 61 59 59 58 59 56 55 54 54 55 54 51 52 51 55 58 57 57 57 55 57 57 57 56 56 56
64 65 66 67 66 67 65 65 64 63 61 61 61 60 60 60 60 59 58 58 57 57 55 54 53 51 51 53 51 50 46 45 48 54 54 55 54 54 55 56 55 55 55
61 63 65 65 65 64 64 65 63 65 63 60 60 61 61 57 58 59 58 57 56 57 54 54 55 52 51 49 51 53 50 48 43 42 50 51 52 51 52 53 53 53 54
61 62 63 64 64 63 63 62 62 59 59 59 59 58 58 59 58 57 57 55 55 56 54 53 53 52 52 49 49 48 48 48 48 43 39 44 49 51 51 51 51 52 52
62 62 61 62 61 61 62 61 60 59 58 60 60 60 60 59 58 56 55 54 54 53 52 52 51 50 50 49 49 48 46 44 43 41 40 41 42 45 49 50 49 50 51

GFSSE_sfc_temp_030.txt.gz
Temp
81 84 74 74 74 74 74 74 74 74 75 75 75 75 75 75 75 75 75 75 76 76 76 75 75 75 75 74 73 73 72 72 72 73 74 76 76 78 76 75 75 84 75
82 83 73 74 74 74 74 74 74 74 75 75 75 74 74 74 75 75 75 75 76 76 76 75 75 75 74 74 73 73 72 71 71 72 73 76 76 77 76 75 74 79 74
82 83 81 73 74 74 74 74 74 75 75 75 74 74 74 75 75 75 75 75 75 76 76 75 75 74 73 72 72 72 72 71 71 72 75 89 84 75 75 74 74 75 75
82 84 85 72 73 74 74 74 74 75 75 75 74 74 74 74 74 74 74 74 75 75 75 75 74 73 72 71 71 71 71 70 70 72 87 87 87 74 75 75 75 75 74
82 86 83 72 73 73 74 74 74 74 74 74 74 75 74 74 74 74 73 74 74 75 75 75 73 73 71 70 70 70 70 70 70 81 87 83 85 77 75 74 76 75 73
82 85 74 71 72 73 73 73 73 73 72 73 73 74 74 74 74 73 73 73 74 74 74 73 72 71 70 70 69 69 69 69 71 88 86 81 82 75 75 74 73 73 73
80 84 81 69 71 73 73 73 72 72 72 72 73 73 74 73 73 72 72 72 73 73 72 72 71 70 70 69 69 68 67 68 85 87 86 84 79 75 76 74 73 73 72
82 82 80 71 71 72 72 71 71 71 71 71 72 72 73 72 72 72 72 71 71 71 71 70 70 69 69 69 68 67 66 67 83 85 85 85 72 74 75 74 73 72 72
80 81 80 80 76 70 70 70 70 70 71 71 71 71 71 70 70 71 71 71 71 71 70 70 69 68 68 67 67 66 66 67 83 84 85 85 71 74 75 75 74 73 72
76 77 79 82 83 81 79 69 69 69 69 70 70 69 69 69 70 70 70 69 69 70 70 69 68 67 68 67 66 66 66 69 84 85 85 78 69 72 74 74 73 73 72
72 73 79 83 81 81 82 75 70 69 69 69 71 69 70 82 81 80 67 68 68 68 68 68 67 67 68 68 67 68 68 83 82 84 84 66 69 71 72 72 72 72 72
69 74 80 80 79 78 81 80 80 81 82 81 81 80 84 80 80 78 71 67 67 67 67 67 68 70 75 81 81 75 81 79 82 81 82 65 67 70 71 71 71 71 71
77 79 78 77 77 79 80 82 82 83 82 81 79 80 80 80 81 83 81 81 80 72 82 78 79 79 76 76 77 76 77 79 81 81 75 64 65 68 70 70 69 69 69
80 79 78 78 77 77 82 82 81 83 82 81 81 78 79 80 79 80 82 80 80 80 77 78 78 75 75 75 75 74 75 76 78 79 75 62 63 66 68 68 68 67 67
80 79 78 77 77 77 78 79 79 80 78 76 77 77 81 81 77 79 77 80 79 80 79 77 76 76 75 75 74 73 74 74 74 77 77 60 61 62 64 66 66 66 65
80 79 78 78 78 78 78 77 76 76 76 75 68 67 71 76 76 76 76 78 79 78 76 75 73 73 74 73 73 73 72 73 73 72 75 76 59 60 61 62 63 63 64
81 78 77 76 78 78 77 75 74 74 73 68 66 65 69 72 72 74 76 75 70 70 69 70 71 73 73 74 72 73 73 73 72 70 72 73 73 58 59 59 60 60 61
82 77 75 74 75 73 69 67 65 64 65 64 64 66 68 70 70 69 69 67 68 71 71 71 70 69 70 70 69 71 71 72 71 69 71 69 70 71 66 60 60 60 60
81 76 73 74 71 64 62 60 64 63 64 64 66 67 66 63 64 67 70 69 69 70 69 68 68 67 66 67 67 68 69 69 70 71 67 67 67 67 67 64 60 60 59
79 76 74 73 67 65 58 60 64 65 67 70 70 67 67 69 69 70 69 68 69 69 67 65 64 66 65 65 65 66 66 67 69 68 66 67 67 65 66 64 65 65 59
75 74 74 69 64 67 64 63 66 65 66 64 70 70 69 69 69 69 71 69 68 66 64 63 63 62 63 64 60 63 65 66 64 66 66 65 64 64 63 64 64 64 64
73 73 73 72 73 74 75 74 75 73 73 73 71 69 69 69 69 69 67 68 66 66 64 62 61 60 61 62 56 56 55 60 65 65 63 63 62 62 62 62 61 61 61
72 72 73 76 76 76 76 74 73 72 71 70 70 70 69 68 69 67 67 67 66 65 63 61 60 58 56 59 59 54 50 50 54 59 59 61 59 59 59 60 59 59 60
74 75 77 76 76 74 73 74 72 75 73 72 72 71 70 67 67 68 66 65 64 64 61 61 62 58 57 54 58 59 56 53 47 46 54 55 58 57 57 57 58 58 58
72 73 75 74 75 73 73 73 72 70 69 69 69 67 68 68 66 66 65 64 62 63 62 59 58 57 58 55 55 54 53 53 53 48 44 50 55 57 57 56 55 56 57
73 72 72 73 72 72 71 70 69 67 67 69 69 67 68 68 67 66 65 63 62 61 60 59 58 57 55 55 54 52 50 49 49 48 46 47 47 52 54 55 54 55 55

GFSSE_sfc_temp_033.txt.gz
Temp
82 84 74 74 74 74 74 74 74 74 75 75 75 75 75 75 75 75 75 75 76 76 76 76 75 75 75 75 74 73 73 72 72 73 75 77 77 76 76 75 75 81 75
84 85 73 74 74 74 74 74 74 74 75 75 75 74 75 75 75 75 75 75 76 76 76 75 75 75 74 74 73 73 72 72 72 73 75 76 75 76 75 74 74 79 75
86 85 81 73 74 74 75 74 74 75 75 75 74 75 75 75 75 75 75 75 75 76 75 75 75 74 74 73 72 72 72 72 72 73 75 74 80 75 75 75 74 75 75
86 84 82 72 73 74 74 74 74 75 75 75 74 75 75 75 75 74 74 74 75 75 75 75 75 74 72 72 72 72 72 72 71 72 87 88 81 75 75 76 75 74 75
81 84 80 72 73 73 74 74 74 74 74 74 74 75 75 75 74 74 74 74 75 75 75 74 74 73 72 70 70 70 71 71 72 78 87 84 79 77 75 74 76 75 73
83 83 72 71 72 73 74 73 73 73 73 73 74 74 75 74 74 73 73 73 74 74 74 73 72 71 70 70 70 70 69 70 70 89 87 81 81 76 75 74 73 73 73
80 78 78 70 72 73 74 73 72 72 72 73 73 74 74 73 73 72 72 72 72 72 72 72 71 70 70 69 69 69 68 69 86 87 87 80 76 75 75 74 73 72 72
72 74 78 72 72 72 72 71 71 71 72 72 72 73 73 72 72 72 72 72 71 71 71 71 70 70 69 69 68 68 67 68 84 85 86 81 72 74 75 74 73 72 72
72 73 78 77 73 70 70 70 70 70 71 71 71 71 71 70 70 71 71 71 71 71 71 70 69 68 68 68 68 67 67 68 79 85 86 79 70 73 74 74 73 72 72
74 77 76 77 81 77 76 69 69 70 70 70 70 70 69 70 70 71 70 70 70 70 70 69 69 69 69 68 69 69 69 70 83 85 82 74 70 72 73 73 72 72 72
75 76 79 83 83 81 78 73 70 70 70 70 70 70 70 83 80 79 68 68 69 68 68 69 70 70 70 70 70 70 69 81 82 83 81 67 69 71 72 71 71 71 72
72 81 85 82 81 82 84 79 80 80 81 81 81 80 82 81 79 80 72 68 68 68 68 70 70 72 76 81 81 76 80 78 81 81 76 66 68 70 71 70 70 70 69
77 82 83 80 80 82 81 83 83 81 82 82 81 80 78 81 80 80 80 80 80 73 80 78 80 80 77 77 77 76 77 77 79 80 73 65 66 68 70 69 68 68 67
81 81 81 79 78 80 83 84 84 82 81 79 79 79 80 78 79 79 82 82 79 81 78 79 79 77 76 76 75 75 75 75 77 77 75 63 65 66 67 68 67 67 66
81 80 80 79 79 80 81 82 81 80 79 78 77 78 81 78 75 79 78 80 78 79 79 77 76 74 74 75 75 75 74 74 74 76 75 62 63 64 64 65 65 65 65
83 81 80 81 80 81 80 78 76 77 79 79 77 75 71 70 70 77 77 77 78 75 74 72 71 73 74 75 74 74 73 74 75 74 74 74 61 62 62 62 63 63 63
83 82 80 79 80 79 77 77 76 75 74 70 72 70 70 71 69 71 71 65 68 69 70 73 72 73 73 74 72 73 73 72 74 73 72 73 70 60 61 61 62 62 62
84 81 80 80 79 76 75 74 72 66 67 68 67 69 69 66 64 63 63 67 70 70 70 70 70 69 69 69 69 70 70 71 71 71 73 72 71 71 65 62 62 62 62
84 81 78 78 74 70 65 63 64 65 65 68 67 66 65 66 67 68 70 71 71 72 70 69 68 67 66 67 68 68 68 69 69 72 70 69 68 69 68 65 62 61 61
84 80 78 76 72 69 67 64 67 67 68 68 69 70 68 71 71 72 72 70 70 70 69 66 65 66 65 65 66 65 66 68 69 68 69 70 68 67 66 65 65 65 60
81 78 77 72 72 72 73 72 72 70 72 70 72 71 72 73 72 72 73 71 69 69 66 65 64 62 62 64 61 61 62 65 67 68 68 67 65 66 65 64 63 63 63
79 75 73 72 73 75 78 77 76 75 74 75 75 72 73 72 72 72 68 69 68 67 66 65 62 60 61 62 56 57 52 57 63 64 64 63 63 64 63 62 61 61 61
74 73 71 73 74 77 79 78 77 76 74 73 72 72 72 71 72 70 68 67 66 66 65 63 62 59 57 59 59 55 50 48 53 59 59 61 59 60 61 61 60 59 59
71 73 77 78 80 79 78 77 74 75 71 74 74 74 72 70 70 70 69 67 65 65 63 63 64 60 58 55 58 60 58 55 48 46 56 57 59 58 58 59 59 58 57
77 78 80 79 79 77 77 77 75 74 74 73 73 69 70 70 69 69 68 66 64 64 63 62 60 59 59 56 55 55 54 54 53 48 44 49 55 57 57 57 57 57 57
77 77 77 77 77 76 75 74 73 70 70 70 70 69 69 70 70 69 68 66 65 63 62 62 61 58 57 55 54 53 51 48 47 46 44 46 48 52 55 56 56 56 57

GFSSE_sfc_temp_036.txt.gz
Temp
78 76 73 74 74 74 74 74 74 74 75 75 75 75 74 75 75 75 75 75 76 76 76 76 75 75 75 74 74 73 73 73 73 74 76 76 76 76 75 74 75 76 75
79 78 73 73 74 74 74 74 74 74 75 75 74 74 74 74 74 75 75 75 76 76 76 75 75 75 74 73 73 73 72 72 72 73 75 76 75 76 76 74 74 75 75
79 77 76 73 74 74 74 74 74 75 75 75 74 74 74 74 74 74 74 75 75 76 76 75 75 74 74 73 72 72 72 72 72 72 75 73 74 76 76 74 74 74 75
81 79 76 73 73 74 74 74 74 75 74 74 74 74 74 74 74 74 74 74 75 75 75 75 75 74 73 72 72 72 72 72 72 72 75 78 77 75 75 75 75 74 75
81 79 75 72 72 73 73 73 73 73 73 74 74 75 75 74 74 74 73 73 74 75 75 75 74 73 71 70 70 71 71 72 72 78 76 75 74 75 75 73 73 73 73
81 77 71 70 72 73 73 73 73 73 73 73 73 74 74 74 73 73 72 73 73 74 74 73 72 71 70 69 70 70 70 70 73 76 74 73 72 75 75 73 72 72 72
73 72 73 70 72 73 73 73 72 72 72 73 73 73 73 73 73 72 72 72 72 72 72 72 71 70 69 69 69 69 69 69 73 73 71 69 69 75 75 73 72 72 72
70 71 72 72 72 71 72 71 71 71 71 72 72 72 72 72 72 71 71 71 71 71 71 70 70 69 69 70 70 69 68 69 74 73 72 68 71 73 74 73 72 72 72
69 69 70 72 71 70 69 69 69 70 70 70 70 70 70 70 70 71 71 71 71 71 70 70 69 69 69 69 71 70 68 69 68 73 74 67 72 73 73 73 72 72 72
67 68 69 72 73 70 70 68 69 69 69 69 70 70 69 70 70 70 70 70 70 70 70 70 70 70 70 69 70 70 69 72 72 71 67 65 71 72 72 72 71 71 71
66 68 70 74 73 71 70 70 69 69 69 69 69 69 68 72 71 72 68 68 69 69 70 70 71 70 69 70 69 70 71 70 71 70 64 67 71 72 72 70 70 70 69
64 67 73 74 74 72 76 71 70 72 71 72 72 70 68 71 70 73 68 68 68 69 69 70 71 71 72 69 69 69 67 68 69 69 61 67 70 71 71 69 69 68 68
64 70 75 72 73 74 73 74 74 73 73 73 72 72 73 73 71 67 66 67 65 67 68 68 70 69 69 67 66 65 66 67 66 67 63 66 68 70 69 69 68 67 66
76 75 75 74 73 72 75 75 74 73 69 70 72 74 71 70 71 70 70 70 69 68 68 68 66 66 66 67 67 66 66 65 64 65 61 64 66 67 68 67 66 66 65
75 74 73 73 73 73 73 73 72 69 72 70 72 72 70 69 68 69 69 69 68 67 64 63 63 64 65 67 66 66 66 64 65 64 62 63 63 65 66 66 65 65 65
76 74 73 74 73 75 72 70 68 69 70 70 69 68 68 66 66 67 65 63 64 63 63 63 63 63 63 64 64 64 64 63 63 63 63 60 62 63 63 64 64 64 64
77 76 74 73 74 72 72 71 69 69 68 66 67 67 67 66 64 63 62 61 61 62 63 63 63 62 61 63 61 62 62 61 61 62 61 62 59 61 61 63 64 64 65
78 75 75 77 73 71 70 70 68 65 65 65 64 65 63 63 63 61 61 61 61 62 62 61 59 58 58 57 56 57 58 60 61 61 61 60 60 62 60 62 63 64 64
78 76 74 73 69 66 63 63 63 64 65 65 63 63 63 63 63 62 61 61 62 62 60 60 57 56 54 55 58 56 55 56 58 64 60 60 60 59 58 62 61 61 62
79 75 75 71 67 65 65 65 66 65 65 64 64 64 64 65 65 64 63 61 61 61 59 57 55 55 53 53 60 57 54 54 57 56 57 61 61 60 57 56 54 55 60
75 74 73 68 66 66 67 66 66 64 65 64 66 66 66 66 66 64 63 62 61 59 57 57 54 52 51 52 50 50 51 54 54 54 54 54 56 59 55 54 54 52 53
73 72 69 69 67 70 72 70 69 67 66 67 67 66 66 66 66 65 61 60 59 57 56 55 53 50 50 51 46 46 43 47 50 54 51 53 51 53 54 55 53 53 50
72 71 68 69 69 70 70 72 70 69 66 65 64 63 65 66 66 64 62 60 58 56 54 53 52 51 47 49 50 45 41 39 45 48 49 49 48 48 49 51 52 53 51
70 69 70 69 72 73 72 70 67 67 64 65 64 65 64 64 64 65 63 60 57 56 54 53 56 51 49 46 47 53 47 45 40 38 44 46 47 50 47 46 48 50 50
68 66 69 71 73 72 72 70 68 67 65 65 63 62 63 61 63 63 62 59 57 55 54 53 52 51 50 47 45 44 44 44 43 38 36 39 45 46 46 46 45 46 49
71 71 69 70 73 72 71 70 68 65 64 62 62 60 61 60 60 60 60 56 55 54 53 52 52 51 48 47 46 44 43 41 40 39 36 37 39 42 44 45 44 45 45

GFSSE_sfc_temp_039.txt.gz
Temp
70 73 73 74 74 74 74 73 74 74 74 75 74 74 74 74 75 75 75 75 75 76 76 76 75 75 75 75 74 73 73 73 73 74 75 76 77 76 75 74 74 75 75
72 74 73 74 74 74 74 74 74 74 74 74 74 74 74 74 74 74 75 75 75 76 76 75 75 75 75 74 74 73 73 72 72 74 75 75 76 76 75 74 73 74 74
72 74 74 73 74 74 74 74 74 74 75 74 74 74 74 74 74 74 74 75 75 76 76 76 75 75 75 73 73 73 73 73 72 73 74 72 73 75 76 74 73 74 74
72 73 73 73 73 74 74 74 74 75 74 74 74 74 74 74 74 74 74 74 75 75 76 75 75 74 73 72 72 72 72 73 72 73 73 73 74 75 74 74 74 74 73
72 72 73 72 73 73 73 73 73 73 73 74 74 74 74 74 74 74 73 73 74 75 75 75 74 73 72 71 71 72 71 72 72 73 68 69 70 75 74 73 72 73 72
72 72 71 71 72 73 73 73 73 72 72 73 73 74 74 74 73 73 72 73 73 74 74 73 73 72 71 70 71 71 71 71 70 66 65 70 70 75 74 73 72 72 71
70 71 72 70 71 72 73 73 72 72 72 72 72 73 73 73 73 72 71 71 72 73 72 72 71 71 70 70 71 71 70 70 68 63 65 65 68 74 74 73 72 71 71
69 70 72 72 71 71 71 71 71 71 71 71 71 72 72 72 71 71 71 71 71 71 71 70 70 70 70 70 71 70 68 70 70 65 65 64 71 73 73 72 71 71 71
68 69 69 69 70 69 69 69 69 70 70 70 70 70 70 70 70 71 71 71 71 70 70 70 70 70 70 70 69 69 68 69 65 64 69 63 72 73 73 71 71 70 70
66 66 67 67 69 68 69 68 69 69 69 69 69 69 69 69 69 70 69 70 70 70 71 71 71 70 70 70 68 68 68 68 64 62 61 63 72 73 72 70 70 69 69
65 66 66 67 68 66 67 69 69 69 69 69 69 69 67 67 68 68 68 69 69 69 70 71 71 69 68 68 68 68 66 64 63 60 59 68 71 72 71 69 69 68 67
62 65 66 67 67 68 71 66 66 69 67 67 67 67 66 66 66 68 67 68 69 69 70 70 70 70 67 64 64 65 62 64 63 62 59 67 70 71 70 69 68 67 66
64 66 67 69 69 69 69 67 67 67 66 66 66 66 65 67 64 63 62 64 62 67 64 66 65 64 64 62 62 62 62 62 59 61 63 66 69 70 69 68 67 66 65
64 67 71 71 69 69 69 68 68 66 65 65 67 68 66 64 63 63 62 65 62 62 60 60 60 62 62 63 62 62 61 60 60 59 59 64 66 68 68 67 66 66 65
65 71 71 70 71 70 67 67 68 65 66 66 66 66 64 63 63 63 61 60 60 61 60 59 60 60 60 61 61 61 62 60 60 59 55 62 64 66 66 66 66 66 66
70 70 68 69 68 69 66 66 65 65 64 64 63 63 64 63 61 60 59 59 59 59 59 59 58 58 57 59 59 60 59 58 58 57 57 55 62 64 64 65 65 66 66
70 70 67 67 67 67 66 66 65 64 64 63 62 62 62 62 59 58 57 57 58 58 58 58 57 56 55 58 56 56 56 57 57 57 57 56 57 61 62 64 64 64 64
70 69 68 72 67 65 64 62 62 61 60 60 60 59 59 60 59 57 57 57 57 57 56 55 54 53 52 51 51 51 51 54 55 56 57 55 54 57 59 62 63 63 63
71 70 67 67 64 61 60 61 61 60 59 58 58 57 59 59 59 57 56 56 57 56 54 55 53 51 49 49 53 51 50 50 51 57 56 55 55 54 55 60 60 60 61
67 70 66 64 61 59 60 59 58 58 57 57 57 57 59 60 60 57 57 57 57 55 53 53 51 50 49 48 55 52 48 49 49 48 49 55 52 53 53 54 50 52 58
67 68 65 62 60 60 59 58 58 56 56 57 58 60 60 60 61 57 56 56 55 53 52 52 50 49 48 47 45 45 46 47 50 47 48 48 50 52 52 54 51 49 49
67 65 64 63 62 62 62 61 61 59 58 58 59 59 60 60 60 59 56 54 54 53 51 50 49 47 46 46 43 41 38 42 45 49 45 47 45 47 50 53 51 51 47
67 64 63 62 62 64 64 64 60 59 57 56 56 56 59 60 60 58 57 55 54 52 50 49 48 47 44 45 46 43 37 34 38 43 45 44 43 43 44 45 47 48 48
62 64 66 64 65 65 65 65 61 57 57 56 56 56 57 59 60 60 58 55 53 51 50 49 51 47 45 43 43 49 43 40 35 34 39 42 43 45 42 41 43 45 46
64 64 65 65 67 65 65 67 61 57 57 56 56 56 56 57 58 59 55 52 51 50 49 48 47 47 46 43 42 41 40 39 39 35 31 35 39 42 41 40 41 41 44
65 65 64 62 63 65 67 63 60 59 57 57 57 56 57 54 52 53 53 50 49 49 48 47 46 46 45 44 42 41 40 38 37 35 33 33 34 37 40 40 40 40 41

GFSSE_sfc_temp_042.txt.gz
Temp
71 73 73 74 74 74 74 73 73 73 74 74 74 74 74 74 74 74 75 75 75 76 76 76 76 76 76 76 75 74 74 73 74 74 74 76 76 76 74 74 73 73 74
73 74 73 73 74 74 74 73 73 74 74 74 74 74 74 74 74 74 75 75 75 76 76 76 76 76 75 74 74 73 73 72 73 73 74 75 75 75 74 73 73 73 74
73 74 73 73 74 74 74 74 74 74 74 74 74 74 74 74 74 74 74 74 75 76 76 76 76 76 75 74 73 73 72 72 73 73 73 68 71 74 74 73 73 73 74
73 74 72 73 73 73 73 74 74 74 74 74 74 74 74 74 74 74 74 74 75 76 76 76 76 75 74 73 73 73 72 72 72 71 68 69 73 74 74 73 73 73 73
72 73 73 72 72 73 73 73 73 73 73 73 74 74 74 74 74 74 73 73 74 75 76 76 75 74 72 72 71 71 71 70 69 69 64 66 68 74 73 72 72 72 72
71 72 70 71 72 72 73 73 73 73 72 73 73 74 74 74 73 73 72 73 74 74 75 74 74 72 71 71 71 70 70 69 67 61 63 68 68 74 73 72 71 71 71
70 71 70 69 71 72 73 73 72 72 72 72 72 73 73 73 73 72 71 72 72 73 73 73 72 72 71 70 70 70 69 68 63 61 63 64 67 74 73 72 71 71 71
69 70 70 72 71 71 72 71 71 71 71 71 71 72 72 72 71 71 71 71 71 71 71 71 70 71 71 70 70 68 68 68 65 62 63 63 71 73 72 71 70 69 70
67 66 66 69 70 69 69 69 69 70 70 70 70 70 70 70 70 71 71 71 71 71 71 70 70 70 70 69 69 68 66 66 61 61 66 62 72 72 72 71 70 69 69
63 65 65 66 67 67 68 68 68 69 69 69 70 69 69 69 69 70 69 70 70 71 71 71 70 70 69 69 68 67 66 65 60 59 59 62 72 72 71 70 68 68 67
63 64 65 65 66 65 66 68 68 69 69 69 69 68 66 65 66 67 67 69 70 70 70 70 69 68 67 66 67 66 65 61 59 58 58 67 71 71 70 69 67 67 66
60 62 65 65 65 66 70 66 65 69 66 66 66 65 64 64 64 66 67 68 69 69 69 68 68 67 65 61 61 63 59 60 59 58 57 67 70 71 69 68 67 66 65
63 63 65 66 66 66 67 63 62 62 62 63 64 64 64 65 63 61 60 61 60 64 63 63 62 61 61 60 59 58 59 58 55 56 60 66 69 70 69 67 66 66 65
62 64 65 67 66 64 65 63 63 63 63 63 64 65 63 61 60 62 60 60 60 59 58 58 58 59 59 60 59 58 58 56 55 55 56 64 66 69 68 67 66 66 65
62 64 65 68 65 65 64 63 64 63 63 63 63 63 64 62 61 60 58 59 58 58 58 57 57 57 57 58 58 57 56 56 56 54 52 61 64 67 67 67 66 66 65
65 65 68 68 66 66 64 64 63 63 63 62 61 62 62 60 58 59 57 57 57 57 57 56 55 54 53 55 55 54 54 54 54 54 53 52 61 64 65 65 65 65 65
65 69 67 67 66 64 64 65 62 63 63 61 60 61 61 60 58 57 56 56 56 56 56 54 53 53 52 54 52 52 52 52 52 53 52 52 54 61 63 64 64 64 64
69 69 67 69 65 64 62 61 61 60 60 59 57 57 59 58 58 56 55 55 55 54 53 52 52 51 50 49 47 48 49 50 51 52 52 52 51 54 57 61 62 62 62
69 68 64 65 63 60 60 60 59 58 58 57 56 56 57 58 57 56 55 54 54 53 52 53 50 50 47 47 50 48 47 47 48 53 51 51 51 51 51 58 59 60 61
65 68 65 64 60 59 59 58 57 57 56 56 55 56 58 58 58 56 55 54 53 52 51 50 49 48 47 46 53 50 46 46 45 45 47 51 49 49 49 50 47 50 58
65 64 63 60 58 60 58 56 55 55 54 55 55 57 58 58 58 55 54 53 52 51 50 50 48 47 45 45 43 43 43 45 45 44 45 45 47 48 47 47 47 46 47
64 63 63 62 60 60 60 57 57 55 55 56 56 56 58 57 56 55 53 52 52 50 49 49 47 45 44 44 42 39 37 40 42 46 43 45 42 44 46 47 46 46 44
63 62 62 61 60 61 60 59 57 57 55 54 53 53 55 57 57 56 54 52 51 50 49 47 46 45 43 43 43 42 36 34 36 40 43 41 41 41 41 43 45 45 45
61 63 63 62 61 61 61 60 58 59 56 54 53 54 54 56 57 57 55 52 50 49 48 47 48 45 43 41 42 46 41 40 35 32 38 40 41 43 40 39 40 42 43
61 61 61 62 63 65 62 62 60 57 56 53 53 53 53 54 55 55 52 50 49 47 47 48 48 44 43 42 40 40 39 38 37 34 29 34 37 40 40 39 39 40 42
61 61 61 63 65 65 62 61 60 58 54 53 52 53 52 51 50 51 51 49 49 47 47 45 43 43 42 41 40 39 39 37 36 34 32 32 32 35 38 39 38 38 39

GFSSE_sfc_temp_045.txt.gz
Temp
71 73 73 74 74 74 73 73 73 73 74 74 74 74 74 74 74 74 74 75 75 76 76 76 76 76 75 75 74 74 74 73 73 74 75 75 75 75 74 73 73 72 74
73 73 73 73 74 74 73 73 73 74 74 74 74 74 74 74 74 74 75 75 76 76 77 76 76 75 74 74 74 73 73 72 72 72 73 74 75 75 74 73 73 72 74
73 74 72 73 73 74 74 74 74 74 74 74 74 74 74 74 74 74 74 75 76 76 77 76 76 76 75 74 73 73 73 72 71 72 72 66 69 74 74 73 73 73 73
73 73 72 72 73 73 73 73 74 74 74 74 74 74 74 74 74 74 74 74 75 76 77 76 76 75 73 72 72 72 72 71 70 69 65 67 71 74 73 73 72 72 72
72 73 72 72 72 73 73 73 73 73 73 73 74 74 74 74 74 74 73 74 75 76 76 76 75 73 72 71 71 70 70 69 68 67 63 65 67 73 73 72 71 71 71
71 72 70 71 72 73 73 73 73 72 72 73 73 74 74 74 74 73 73 73 74 75 75 75 73 72 71 70 70 69 68 68 65 60 61 66 67 73 72 71 71 71 71
69 70 70 70 71 72 73 73 72 72 72 72 73 73 73 73 73 72 72 72 72 73 73 73 72 71 70 70 69 68 68 67 62 60 62 63 67 72 72 71 70 69 70
68 69 70 70 71 71 72 71 71 71 71 72 72 72 72 72 72 71 71 71 71 71 71 71 71 71 70 69 69 67 67 66 64 61 61 61 70 72 72 70 69 69 69
65 65 66 67 69 69 69 69 69 70 70 70 71 71 70 70 70 71 71 71 71 71 71 71 70 70 70 69 67 66 65 65 59 59 64 61 71 71 70 69 68 68 68
63 63 63 65 67 66 67 68 68 68 69 69 69 69 68 69 69 70 70 70 71 71 71 70 69 69 68 67 66 65 64 64 57 57 57 61 71 70 70 68 67 67 66
61 63 63 63 65 65 66 68 68 69 68 68 68 68 65 63 64 65 68 69 70 70 69 69 68 66 65 65 65 65 63 57 57 56 56 67 71 70 69 68 67 66 66
59 61 63 63 64 65 69 65 65 67 65 65 64 64 63 62 63 65 67 68 68 68 68 67 66 65 63 59 58 61 56 56 56 55 56 66 70 70 68 67 66 66 65
61 62 63 63 64 65 66 63 62 62 63 63 63 63 63 63 62 61 61 60 60 64 60 61 61 60 58 57 56 55 55 54 51 53 57 64 68 70 68 67 66 65 65
60 62 63 64 64 63 63 62 62 62 61 61 63 63 62 60 58 59 58 58 58 57 56 56 56 56 56 56 56 55 54 52 51 51 54 62 64 68 68 67 66 65 65
60 62 63 65 64 63 62 61 61 61 61 62 63 64 63 61 59 58 58 57 56 56 56 55 55 55 54 54 54 54 53 52 52 51 49 59 62 66 67 67 66 66 64
63 63 64 65 64 63 62 61 60 62 62 62 61 61 62 59 57 57 56 56 56 55 54 56 54 52 51 52 52 52 51 50 51 50 49 49 61 64 65 65 65 65 65
64 65 64 65 63 62 62 63 62 62 62 60 60 61 60 58 57 56 55 54 54 54 53 52 51 51 50 52 49 50 49 50 50 50 49 49 52 60 62 63 64 63 63
64 64 65 68 64 63 61 60 60 60 60 59 58 58 58 58 57 54 54 53 53 53 52 51 50 49 48 48 47 47 47 48 49 49 49 49 49 51 55 61 61 62 62
65 65 64 64 62 61 59 59 59 59 58 56 56 56 57 57 56 55 54 53 53 52 50 52 48 48 46 46 48 46 45 45 46 50 48 48 48 48 48 55 57 59 60
64 64 65 62 59 59 58 57 57 56 56 55 55 55 56 56 56 55 53 52 52 50 49 49 47 46 45 45 51 48 43 44 43 44 45 49 47 46 46 47 45 48 58
61 61 62 59 58 59 58 56 55 54 54 54 54 56 57 56 56 54 52 51 50 50 49 49 47 46 43 43 42 42 41 42 43 43 43 43 45 45 45 44 44 43 45
62 61 59 60 58 59 60 56 56 54 54 54 55 55 56 56 55 54 52 51 50 49 48 47 46 43 43 43 41 38 37 40 41 43 41 43 41 42 44 45 44 44 42
61 60 60 60 59 60 59 57 54 54 53 52 52 52 54 55 55 54 52 50 49 48 47 46 45 45 42 42 44 43 35 33 35 39 40 40 40 39 40 41 43 44 43
62 63 63 61 60 60 60 58 55 54 52 53 52 52 53 54 54 54 52 50 49 47 46 46 47 43 42 41 40 44 40 39 34 32 36 38 39 41 39 38 39 40 41
62 61 61 60 60 61 61 59 55 54 53 52 52 52 52 52 53 52 50 49 48 47 45 45 46 43 42 41 40 38 37 36 35 34 30 33 36 38 39 38 38 38 40
58 59 58 59 59 61 60 59 56 54 52 52 50 50 49 48 48 49 49 47 47 47 46 44 45 44 42 40 39 38 37 36 35 33 30 31 31 34 37 37 36 37 36

GFSSE_sfc_temp_048.txt.gz
Temp
70 72 73 74 74 73 73 73 73 73 74 74 74 74 74 74 74 74 75 75 76 77 77 76 76 76 76 76 75 74 73 73 73 74 75 75 75 75 74 73 73 73 74
72 72 73 73 73 73 73 73 73 73 74 74 74 74 74 74 74 75 75 75 76 77 76 76 75 75 75 75 74 73 73 72 72 72 73 74 74 74 74 73 73 73 73
72 72 72 73 73 73 73 74 74 74 74 74 74 74 74 74 75 75 75 75 76 77 77 76 76 75 75 74 73 73 72 71 71 71 71 66 70 74 73 72 73 73 73
72 72 71 72 73 73 73 73 74 75 74 74 74 74 74 74 74 75 75 75 75 76 76 76 75 75 73 72 71 71 71 70 69 68 65 66 71 73 73 72 72 72 72
72 72 71 72 72 73 73 73 73 73 73 73 74 74 74 74 74 74 74 74 75 76 76 75 74 73 71 70 70 70 69 69 68 66 64 65 67 72 72 71 71 71 71
71 71 70 71 71 73 73 73 73 73 72 73 73 74 75 75 74 73 73 74 74 75 75 75 73 72 70 69 69 69 68 68 65 61 62 66 67 73 72 71 70 70 70
69 70 70 69 71 72 73 73 72 72 72 73 73 73 74 74 73 73 72 73 73 73 73 73 71 71 69 69 69 68 67 67 61 60 62 64 66 72 71 70 69 69 69
67 68 69 70 70 71 72 71 71 71 71 72 72 73 73 72 72 72 72 72 72 72 71 71 70 70 69 69 68 67 66 66 62 61 61 62 70 71 70 69 68 68 68
66 65 65 66 69 69 69 69 69 70 70 71 71 71 70 70 70 71 71 71 71 71 71 71 70 69 68 68 67 65 65 65 58 59 63 62 71 70 70 69 68 67 67
61 62 63 65 65 66 67 68 68 69 69 69 69 69 68 69 69 70 70 70 71 71 70 69 68 68 67 66 65 64 63 62 56 57 58 62 70 70 69 68 67 67 66
59 58 59 62 65 65 65 68 68 69 68 68 68 68 65 63 64 64 68 69 69 69 69 68 67 66 65 65 64 63 61 55 55 55 57 66 70 70 68 67 67 66 66
59 60 61 62 64 65 68 64 64 67 64 64 64 63 62 62 62 64 66 68 68 67 67 67 66 64 61 57 56 59 53 53 53 55 56 66 70 69 68 67 66 66 66
60 60 60 61 62 64 65 62 62 62 62 62 62 62 62 62 61 60 59 59 59 63 60 60 58 57 56 55 54 52 52 52 51 52 57 64 66 69 68 67 66 66 65
59 59 60 61 62 63 63 62 62 61 61 60 62 62 61 59 58 59 59 59 57 57 56 55 54 54 54 54 53 52 51 51 50 51 53 61 64 68 67 67 66 65 64
60 60 59 61 63 63 62 61 61 60 61 61 62 62 62 60 58 58 57 57 55 55 54 53 53 53 52 52 51 51 51 50 50 50 49 58 62 66 67 67 66 65 65
61 61 62 63 62 62 61 60 60 60 61 61 61 62 62 60 57 57 55 55 54 54 53 53 55 51 50 51 50 50 50 49 50 49 49 51 61 64 65 65 65 65 65
61 62 61 62 62 61 60 60 59 60 62 60 60 61 60 59 57 55 53 53 52 52 52 52 53 50 49 51 49 49 49 49 49 49 49 50 52 59 62 63 63 63 63
63 63 63 66 61 60 59 60 60 61 60 59 58 58 57 57 56 54 53 54 52 52 51 50 49 48 47 48 47 46 46 48 48 48 49 49 50 51 55 59 60 61 62
60 60 61 61 60 59 59 59 59 59 58 58 57 56 56 56 55 55 57 55 53 51 50 51 48 48 46 46 48 46 45 45 46 50 48 48 48 49 49 55 57 59 60
60 61 61 60 59 58 57 57 56 56 56 55 55 55 55 55 55 53 52 52 51 50 48 48 47 46 45 45 51 47 43 44 44 44 46 49 47 46 47 47 47 50 57
59 60 60 59 57 57 56 55 54 54 56 54 54 55 55 55 55 53 52 51 50 49 48 48 46 45 44 43 43 43 42 42 44 43 44 44 45 46 46 46 46 45 46
60 60 59 59 58 58 59 55 55 54 54 55 54 54 55 54 54 53 51 50 49 48 47 46 46 43 43 42 41 39 37 41 42 44 42 44 42 44 45 46 45 46 45
59 60 60 59 59 59 59 56 53 54 54 53 52 52 54 54 54 53 51 49 48 47 46 45 44 44 42 42 42 41 36 35 37 41 41 41 41 41 42 43 44 45 44
61 61 61 60 59 59 58 59 54 54 52 53 52 51 55 53 53 52 51 49 47 46 45 45 46 43 44 42 41 44 43 42 36 35 39 39 40 41 40 41 42 42 42
60 58 59 58 58 59 58 58 55 53 54 52 51 53 53 50 51 51 49 47 46 45 45 46 45 43 45 41 43 42 39 37 37 35 32 36 38 40 40 40 39 39 40
56 56 57 58 58 59 59 57 56 55 53 52 51 51 48 48 48 47 47 46 46 46 44 46 45 44 44 42 42 38 38 37 37 33 31 32 32 36 38 39 38 38 39

GFSSE_sfc_temp_051.txt.gz
Temp
74 78 74 74 74 74 73 73 73 74 74 74 74 74 75 75 75 75 75 76 76 77 77 77 77 77 76 76 75 74 73 73 73 74 75 75 75 75 74 73 75 78 74
75 78 73 74 74 74 73 73 73 74 74 74 74 74 74 75 75 75 75 76 76 77 77 76 76 76 75 75 73 73 73 72 72 72 74 75 74 74 74 73 73 76 73
74 77 78 73 73 73 74 74 74 74 74 74 74 74 74 75 75 75 75 75 76 77 77 77 76 76 75 73 72 72 72 71 71 71 74 80 78 74 73 73 72 73 73
76 78 78 72 73 73 73 73 74 75 74 74 74 74 75 75 75 75 75 75 75 76 77 77 76 74 73 72 71 71 71 70 70 72 78 79 78 73 73 73 73 73 73
75 77 77 72 73 73 73 73 74 73 73 73 74 75 75 75 75 75 74 74 75 76 76 76 74 73 71 70 70 70 70 69 69 75 78 78 78 74 73 72 73 71 71
72 74 72 71 72 73 73 73 73 73 73 73 74 74 75 75 75 74 73 74 75 75 75 74 73 71 70 69 69 69 68 68 72 78 77 75 76 72 72 71 70 70 70
71 72 72 69 70 72 73 73 72 72 72 73 73 74 74 74 74 73 73 73 73 73 73 73 72 70 69 69 69 68 67 67 76 76 76 75 74 71 71 70 69 69 69
67 69 69 70 71 72 72 71 71 71 72 72 73 73 73 72 72 72 72 72 72 72 71 71 70 69 69 68 68 67 66 67 74 75 75 75 71 71 70 69 69 68 68
64 64 68 68 69 69 69 69 70 70 71 71 71 71 71 70 71 71 71 71 71 71 71 70 69 68 68 67 66 65 64 65 73 74 74 76 70 70 70 69 68 68 67
63 62 62 64 65 67 69 68 68 69 69 69 69 69 68 69 70 70 70 71 71 70 70 69 68 67 66 66 65 64 63 65 73 74 75 75 70 70 69 68 68 67 67
59 62 62 62 65 67 66 69 69 69 68 68 69 68 68 74 74 74 70 69 69 69 68 68 67 65 65 64 64 63 65 71 72 73 75 67 70 69 68 68 67 67 67
58 58 59 61 64 66 67 69 68 69 71 71 70 68 68 70 72 73 70 68 68 67 67 66 65 65 68 70 69 66 70 69 70 71 73 66 69 69 68 67 67 66 66
59 60 61 62 63 64 66 64 65 69 71 69 68 69 68 71 71 71 71 71 70 67 69 69 68 68 65 68 67 66 67 68 70 71 68 63 66 69 68 67 66 66 66
60 60 60 62 62 64 64 65 67 68 68 67 70 69 67 69 68 68 70 68 68 68 65 64 66 64 65 65 65 64 64 67 68 69 68 61 64 69 68 67 66 65 65
59 60 60 61 62 67 66 66 66 65 68 70 70 70 70 69 66 66 66 65 65 66 67 66 66 66 65 64 64 64 64 63 64 67 68 61 63 67 68 67 66 66 65
62 64 65 64 67 68 68 66 67 68 68 69 69 69 68 66 65 66 65 65 66 67 67 67 66 66 65 65 63 63 63 64 64 64 67 67 62 64 66 66 66 66 65
66 67 66 67 68 67 67 68 69 69 68 67 66 65 66 66 64 65 65 66 66 65 64 64 62 64 64 64 62 62 64 63 64 63 65 66 66 60 62 64 63 63 63
67 67 67 69 67 66 67 68 68 66 67 65 65 66 67 66 65 64 65 65 62 58 60 59 63 63 63 64 62 62 63 63 62 62 64 65 66 67 62 60 61 61 62
67 67 67 68 67 66 66 66 66 68 67 68 65 64 64 65 64 64 65 62 58 59 60 63 62 63 62 62 63 62 62 62 61 63 61 62 62 65 66 58 58 59 60
68 68 68 68 67 66 66 66 66 65 66 66 64 65 65 66 64 65 64 61 61 63 62 62 61 61 61 61 62 61 60 61 61 62 62 62 62 61 62 62 64 62 56
67 67 68 67 66 66 66 63 64 62 63 62 62 63 64 66 65 64 64 62 63 62 61 60 59 59 59 59 60 59 58 57 57 60 60 60 59 60 59 61 62 62 61
67 67 68 68 68 67 68 66 67 64 63 64 62 62 63 64 64 63 63 62 62 62 59 59 59 59 59 58 58 56 55 55 56 57 58 57 56 59 58 58 57 57 58
66 66 68 69 68 68 68 67 64 63 62 60 60 61 62 63 62 63 62 62 61 61 60 59 59 59 57 56 55 52 52 51 53 57 55 56 55 57 58 57 56 56 55
67 68 68 68 67 67 66 66 64 64 63 62 61 62 63 62 59 59 62 61 60 60 58 59 59 57 55 55 54 54 54 54 50 50 55 55 55 54 55 56 55 54 53
68 65 66 67 66 66 65 66 64 63 65 60 59 60 61 59 57 59 60 59 59 60 58 57 55 55 55 54 54 55 53 53 52 49 48 52 54 55 55 54 53 52 51
67 65 65 66 66 66 65 65 63 62 61 60 60 60 60 60 60 59 59 59 58 57 56 51 47 50 50 47 54 53 52 51 51 49 48 49 48 51 52 53 52 51 52

GFSSE_sfc_temp_054.txt.gz
Temp
77 84 73 74 74 74 74 74 74 74 74 75 75 75 75 75 75 75 76 76 76 77 77 77 77 76 76 75 74 73 73 73 74 74 75 75 75 75 74 74 77 80 74
82 82 73 74 74 74 74 74 74 74 74 75 75 74 75 75 75 75 76 76 77 77 77 77 76 76 75 74 73 73 73 72 72 74 75 75 74 74 73 73 73 77 73
83 81 81 73 73 74 74 74 74 74 75 74 74 74 75 75 75 75 75 76 76 77 77 76 76 75 74 73 72 72 72 72 72 73 77 85 81 74 74 73 73 73 73
82 82 84 72 73 73 73 74 74 75 74 74 75 75 75 75 75 75 75 75 76 77 77 76 76 74 73 72 71 71 71 71 72 75 85 85 82 73 74 73 72 72 73
79 82 81 72 72 73 73 73 74 74 73 74 74 75 75 75 75 75 74 75 76 76 76 75 74 73 71 70 70 70 70 71 73 80 85 83 82 75 72 72 73 71 70
78 78 71 71 71 73 73 73 73 73 73 73 74 75 75 75 75 74 74 74 75 75 75 74 73 71 70 69 69 69 69 70 74 84 83 78 78 72 71 71 70 70 70
77 74 73 69 70 72 73 73 73 73 73 73 74 74 74 74 74 73 73 73 74 74 74 73 71 70 69 69 69 68 68 70 83 84 82 79 75 71 71 70 69 69 69
71 72 72 70 70 71 72 72 71 72 72 73 73 73 73 73 72 72 72 72 72 72 71 71 70 70 69 68 68 67 66 69 81 82 81 78 71 70 70 69 68 68 68
65 67 68 71 71 69 69 69 70 71 71 71 71 71 71 71 71 71 71 71 71 71 70 70 69 68 68 67 66 65 65 68 81 81 82 79 70 70 70 69 68 68 68
63 64 64 64 70 71 70 68 68 69 69 70 70 69 69 70 70 70 70 71 70 70 70 69 68 67 67 66 65 65 66 69 81 82 81 76 70 70 69 69 68 68 67
61 61 62 63 62 66 68 68 69 69 69 68 70 69 70 79 79 78 71 69 69 69 68 68 67 66 65 64 65 66 69 79 80 81 79 68 70 70 69 68 67 67 67
58 59 62 61 61 66 68 68 69 72 75 73 74 75 79 78 80 77 70 68 68 67 67 66 66 67 71 79 77 71 77 77 79 80 76 66 70 69 68 67 67 67 66
59 59 61 62 64 63 62 62 65 69 71 73 72 74 76 77 75 76 73 75 74 71 76 74 74 77 74 76 75 75 75 77 78 79 70 64 67 69 68 67 67 66 66
59 61 59 59 61 60 63 63 64 72 73 73 73 74 73 75 75 77 78 77 75 78 74 74 74 71 71 72 72 71 72 75 76 78 69 63 65 69 68 67 66 66 65
58 59 59 61 62 63 63 63 68 71 72 76 75 75 77 77 75 77 76 77 77 75 75 72 71 72 71 72 73 72 71 71 72 77 76 63 65 68 68 68 67 66 65
59 59 59 61 62 64 66 70 72 71 73 75 77 76 74 76 73 74 74 75 73 74 75 75 74 74 74 73 71 70 70 72 71 72 77 71 62 65 67 67 67 66 65
67 70 65 68 68 68 70 72 75 76 77 77 78 75 75 74 74 74 72 70 72 74 73 73 72 73 73 74 70 71 73 70 71 71 75 76 69 60 63 64 64 64 64
74 71 71 72 71 73 73 74 75 77 77 78 76 72 71 74 73 72 73 73 74 73 72 65 70 73 73 73 71 73 73 73 70 71 73 74 75 74 61 61 61 62 62
76 74 72 73 74 73 74 74 74 74 76 77 76 74 73 73 72 73 74 74 70 65 65 66 71 72 70 72 72 73 72 73 69 72 70 69 69 71 71 59 59 59 60
75 75 75 75 74 74 74 73 74 75 76 77 75 70 70 74 72 72 74 72 69 70 65 66 66 70 71 72 72 71 70 70 70 68 68 69 69 67 67 67 68 65 57
74 73 74 73 74 75 75 74 74 72 74 74 76 74 70 73 71 72 73 70 69 67 65 63 67 66 67 69 68 68 67 66 64 66 67 67 66 66 65 66 66 67 66
73 73 74 76 75 76 77 77 77 76 76 75 73 67 68 69 71 72 71 70 70 69 62 63 67 67 68 68 67 64 61 64 63 64 66 65 64 65 65 64 63 62 63
73 73 75 76 77 77 77 78 77 76 74 71 68 68 65 66 70 70 71 70 70 65 60 64 67 66 65 65 63 62 59 58 62 67 63 64 63 63 64 64 63 62 61
74 76 77 78 78 78 77 77 74 74 72 73 69 65 65 66 67 71 71 68 65 65 65 67 68 67 66 62 62 63 60 61 57 56 65 62 62 61 61 62 62 62 61
76 76 77 78 78 78 77 75 74 73 76 77 68 67 65 65 69 68 66 64 63 68 67 67 65 64 57 50 55 52 58 61 60 55 53 59 64 63 62 61 61 60 59
79 77 76 76 77 77 76 74 73 72 73 73 69 68 67 68 67 66 63 61 64 67 66 65 60 52 51 51 53 53 59 58 58 57 55 55 56 59 61 60 59 59 59

GFSSE_sfc_temp_057.txt.gz
Temp
82 84 74 75 75 75 74 74 74 74 74 75 75 75 75 75 75 76 76 76 77 77 77 77 76 76 75 75 74 74 74 74 74 74 75 75 75 75 74 74 76 78 74
84 84 73 74 75 74 74 74 74 74 75 75 75 75 75 75 75 75 76 76 77 77 77 76 76 75 75 74 73 73 73 73 73 74 75 75 75 74 74 73 73 76 73
82 84 82 73 74 74 74 74 74 75 75 75 75 75 75 75 75 75 76 76 76 77 77 76 75 75 74 73 72 73 73 72 73 75 78 82 78 74 74 73 73 73 73
84 82 83 72 73 73 74 74 74 75 75 75 75 75 75 75 75 75 75 75 76 76 76 76 75 74 73 72 72 72 72 72 73 75 85 84 80 73 73 73 72 72 72
81 81 80 71 72 73 73 73 74 74 74 74 74 75 75 75 75 75 75 75 75 76 76 75 74 72 71 70 70 71 71 72 73 81 82 80 79 74 72 71 72 71 70
81 79 72 71 72 73 73 73 73 73 73 73 74 75 75 75 75 75 74 74 75 75 75 74 72 71 70 69 70 70 70 71 72 85 81 76 75 72 71 70 70 70 70
79 74 75 69 71 73 73 73 73 73 73 73 74 74 74 74 74 74 73 73 73 74 73 72 71 70 69 69 69 69 69 69 85 83 79 76 73 71 71 70 70 69 70
69 69 70 70 70 71 72 72 71 72 72 73 73 73 73 72 72 72 72 72 72 71 71 70 70 69 69 68 68 67 68 69 83 82 79 75 71 70 70 69 69 68 68
68 66 67 69 69 68 69 70 70 71 71 71 71 71 71 71 71 71 71 71 71 71 70 70 69 68 68 67 67 67 68 70 82 82 81 75 70 70 70 69 68 68 68
66 65 66 66 67 69 70 69 69 70 69 69 70 69 69 70 70 70 70 70 70 70 70 69 68 67 66 66 66 66 68 71 83 82 78 73 70 70 69 69 68 68 67
63 65 66 66 66 66 70 69 69 69 69 68 69 69 70 75 75 78 70 69 69 68 68 68 67 66 65 66 67 68 70 80 81 81 77 69 70 70 69 68 68 67 67
58 59 62 65 64 68 68 68 68 69 73 74 75 75 76 74 76 76 70 68 67 67 67 67 67 66 67 79 77 72 78 79 80 79 73 67 69 69 68 68 67 67 67
61 59 59 61 63 63 62 63 64 67 71 71 72 74 75 74 75 74 72 72 71 70 74 73 72 78 77 77 76 76 77 78 79 79 68 65 69 69 68 67 67 67 66
58 59 61 61 61 60 59 59 61 66 71 73 71 73 75 74 74 73 74 74 75 77 75 77 76 73 73 74 74 73 74 76 77 79 68 64 66 69 68 68 67 66 66
57 58 58 59 59 59 59 60 61 66 70 72 73 74 75 75 73 75 75 77 77 78 76 75 74 74 73 74 74 74 73 73 74 77 74 64 65 68 68 68 67 66 66
57 57 59 59 60 60 60 61 61 71 74 76 76 74 74 75 74 76 75 77 77 77 77 76 76 75 75 74 72 72 72 74 73 74 76 69 62 66 68 68 67 67 66
58 58 58 58 60 61 62 65 68 71 75 75 76 75 76 77 75 75 75 76 76 76 75 75 74 75 74 75 73 73 74 73 72 73 75 73 67 61 64 65 64 64 64
64 60 60 63 63 66 66 68 67 75 75 77 78 78 76 76 76 75 75 74 75 75 74 73 73 74 74 74 73 74 74 73 71 71 74 73 74 71 62 62 62 62 62
72 69 67 69 69 69 69 70 72 76 76 78 78 77 74 74 75 75 75 75 75 73 72 70 72 72 72 72 72 72 72 73 71 74 71 70 70 71 71 61 61 61 61
75 72 72 72 71 72 72 74 75 75 75 78 78 78 75 75 74 73 75 75 74 72 70 71 69 70 71 72 74 72 71 71 71 70 69 70 70 68 68 68 66 65 59
76 73 73 71 74 76 75 74 73 72 75 76 79 77 73 73 75 72 74 73 71 71 70 68 67 65 67 70 69 69 69 69 67 68 69 69 69 68 68 67 66 67 64
75 75 74 75 76 78 79 78 78 77 77 76 77 77 73 72 75 73 73 73 71 71 69 67 65 63 65 69 65 67 61 65 64 66 67 67 66 67 67 67 65 64 64
75 75 77 77 78 78 80 81 80 79 79 77 77 76 71 69 65 63 65 70 71 71 68 66 66 62 63 67 67 64 58 56 60 69 64 66 65 65 65 66 65 64 64
75 77 77 78 79 80 80 79 78 76 75 76 76 76 70 64 62 62 62 64 71 72 66 63 65 64 67 65 65 66 60 58 55 56 66 65 65 63 62 63 64 64 63
78 77 77 79 80 81 81 79 78 75 77 79 77 75 69 66 65 65 65 65 69 67 64 62 63 66 68 66 55 53 53 58 60 56 54 59 65 66 66 63 62 62 62
80 79 78 78 79 81 80 79 77 76 75 76 77 69 67 67 66 67 68 63 62 62 61 62 67 66 59 55 59 53 51 53 57 57 56 57 58 61 64 64 62 61 61

GFSSE_sfc_temp_060.txt.gz
Temp
79 78 75 75 75 74 74 74 73 74 74 75 75 75 75 75 75 76 76 76 76 77 77 76 76 76 75 75 75 74 74 74 74 74 75 75 75 75 74 74 74 75 74
76 79 73 75 75 75 74 74 74 74 75 75 75 75 75 75 75 75 76 76 76 77 77 76 75 75 75 74 74 73 73 73 73 74 75 75 75 74 74 73 73 73 74
70 77 78 74 74 74 74 74 74 75 75 75 74 74 75 75 75 75 75 75 76 76 76 76 75 75 74 73 73 73 73 73 73 73 75 73 71 74 73 72 73 73 73
73 78 77 73 74 74 74 74 74 75 75 74 75 75 75 75 75 75 75 75 75 76 76 75 75 74 73 72 72 72 72 72 73 75 75 73 73 73 73 72 71 72 72
79 79 75 72 73 73 73 73 74 74 74 74 74 75 75 75 75 75 74 74 75 75 75 75 73 72 71 70 70 71 71 71 72 74 70 70 69 72 71 71 71 71 70
76 77 70 71 72 73 73 73 73 73 73 73 74 75 75 75 75 74 74 74 75 74 74 73 72 71 70 69 70 70 70 70 75 72 69 70 69 71 71 70 70 70 69
70 71 71 70 71 73 73 73 73 72 72 73 73 74 74 75 74 73 73 73 73 73 73 72 71 70 69 69 69 69 69 70 75 71 68 67 67 71 70 70 69 69 69
69 68 69 70 70 71 72 72 71 71 72 72 73 73 73 73 73 73 72 72 72 71 71 70 70 69 69 68 69 68 68 69 75 70 68 66 69 70 70 69 68 68 68
68 66 66 66 67 68 68 69 70 71 71 71 71 71 71 71 71 71 71 71 70 70 70 69 68 68 68 68 68 67 67 68 71 71 71 66 70 70 70 69 68 68 68
66 66 65 65 65 64 64 69 68 68 69 69 69 69 69 69 70 70 70 70 70 70 69 69 68 67 67 67 67 68 68 67 71 70 67 66 69 70 69 69 68 68 68
64 64 65 64 64 64 64 65 67 70 68 68 69 69 69 70 69 71 69 69 69 68 68 68 67 66 66 67 68 68 68 67 70 68 66 68 69 69 69 68 68 67 67
58 62 64 64 63 64 63 64 65 67 67 69 70 69 70 68 69 68 67 67 67 67 67 67 67 66 67 65 65 68 66 67 68 66 62 68 69 69 68 68 67 67 67
58 59 60 63 63 64 64 64 65 64 65 68 70 69 68 68 67 66 65 65 64 66 66 66 64 65 66 66 64 63 65 66 64 65 63 66 69 69 68 68 67 67 66
57 58 59 60 60 61 61 61 61 62 65 66 67 69 67 68 67 66 65 65 65 65 64 65 64 65 65 66 66 65 65 64 63 62 61 65 68 69 68 67 67 67 66
56 57 58 59 58 59 58 60 59 59 63 66 67 70 68 67 66 66 66 66 66 67 66 66 64 65 64 65 65 65 65 65 65 64 59 64 65 68 68 68 67 66 66
57 56 58 58 58 58 57 58 59 61 63 66 68 69 69 67 67 66 67 67 67 67 67 66 64 64 64 64 64 64 64 64 64 64 62 58 64 66 68 68 68 67 66
57 57 58 58 58 58 58 58 59 62 66 67 68 69 69 69 68 68 67 66 67 66 67 66 65 65 64 66 63 64 63 64 63 64 63 60 59 63 64 66 66 65 65
60 58 59 61 59 59 58 59 62 66 66 68 68 68 68 70 69 67 66 66 66 66 65 64 63 63 62 62 61 61 62 63 63 63 64 62 61 62 61 63 63 63 63
62 60 61 61 61 60 61 63 63 65 67 69 69 70 69 69 69 67 67 66 66 64 63 63 62 63 62 61 62 61 61 60 61 67 63 62 61 60 59 61 61 61 62
64 63 63 63 62 63 63 65 66 63 70 69 69 69 69 69 68 67 67 66 66 64 62 61 61 62 62 63 69 64 59 60 60 59 59 63 60 60 59 57 54 55 60
66 64 65 64 65 65 64 64 64 65 68 68 68 70 68 68 68 66 66 66 65 63 61 61 60 59 60 62 61 57 57 58 58 57 57 57 59 59 58 57 55 54 54
65 66 67 67 67 68 68 69 69 69 69 69 70 69 68 68 68 68 66 64 64 61 61 60 60 57 59 60 57 55 50 52 55 57 56 57 56 57 58 59 56 57 54
66 67 69 69 68 68 72 73 72 70 69 68 68 68 68 66 64 66 66 63 62 62 60 60 59 59 57 59 60 53 49 47 49 56 57 57 54 53 55 56 57 57 55
69 70 70 70 71 71 73 73 70 70 68 69 69 70 69 66 64 63 62 61 60 60 59 60 61 59 58 56 57 59 52 51 48 48 55 56 56 55 53 52 54 55 56
73 71 71 71 73 74 73 73 69 70 69 69 68 68 65 63 63 63 62 61 61 60 60 59 57 56 58 56 55 49 49 52 49 49 46 51 55 54 53 51 52 52 55
74 72 72 73 74 75 74 72 71 70 69 69 68 66 65 63 62 63 63 61 61 59 57 55 55 54 53 51 52 51 50 49 49 48 46 48 48 51 53 54 51 50 50

GFSSE_sfc_temp_063.txt.gz
Temp
72 74 74 75 75 74 74 73 73 74 75 75 75 75 75 75 75 75 75 76 76 76 77 76 76 76 76 75 75 74 74 73 74 74 75 75 75 74 74 74 74 74 74
67 73 72 74 75 74 74 74 74 74 75 75 75 75 75 75 75 75 75 75 76 76 76 76 76 76 75 74 73 73 73 73 73 73 74 75 74 74 73 73 73 73 73
69 71 75 73 74 74 74 74 74 75 75 75 75 75 75 75 75 75 75 75 76 76 76 76 76 75 75 73 73 73 72 72 73 72 73 72 72 73 73 73 73 73 73
70 75 75 71 74 74 74 74 74 75 75 75 75 75 75 75 75 75 75 75 75 75 76 76 75 74 73 72 72 72 72 72 71 71 69 69 72 73 73 72 72 73 73
70 72 73 71 73 73 73 74 74 74 74 74 74 75 75 75 75 75 74 74 75 75 75 75 74 72 71 70 70 71 72 71 70 69 66 65 68 71 71 71 70 71 71
71 74 72 71 72 73 73 74 73 73 73 73 74 75 75 75 75 74 73 74 74 74 74 74 72 71 70 69 70 70 71 70 68 64 63 68 67 71 71 70 70 70 70
70 69 70 70 72 73 73 73 73 72 72 73 74 74 74 74 74 73 73 73 73 73 73 72 71 70 69 69 70 69 70 69 66 63 62 62 66 71 70 70 69 69 69
66 66 66 69 71 72 72 72 71 71 72 72 73 73 73 73 73 72 72 72 71 71 71 70 70 70 69 69 69 68 68 69 68 64 62 62 69 70 70 69 68 68 68
64 65 65 65 64 65 67 68 69 70 70 72 72 72 71 71 71 71 71 71 70 70 70 70 69 68 68 68 68 67 66 68 65 66 67 62 70 70 70 69 68 68 68
64 63 63 64 63 62 63 65 67 68 68 69 69 70 69 70 70 70 70 70 70 70 69 69 68 68 68 68 68 67 67 67 64 63 62 65 69 70 69 69 68 68 67
63 63 63 63 63 62 62 64 66 70 67 67 67 67 66 67 68 68 68 68 69 68 68 68 68 67 67 68 68 67 66 64 64 63 61 68 69 69 69 68 68 68 67
61 62 63 62 61 62 64 64 64 66 65 66 65 65 64 66 67 67 67 67 68 68 68 68 67 67 66 62 62 64 60 62 62 60 61 67 69 69 68 68 67 67 67
59 61 62 62 62 62 62 64 64 64 64 66 65 66 66 65 64 64 63 62 62 65 64 65 64 62 62 60 60 60 60 59 57 59 63 67 69 69 68 68 67 67 66
57 59 60 61 61 61 63 63 63 64 62 64 66 65 64 63 64 63 62 61 62 63 62 61 61 61 62 63 62 61 60 57 55 56 61 65 68 69 68 68 67 67 66
57 57 58 60 59 60 60 61 62 61 62 64 65 66 65 64 63 63 62 62 62 62 61 60 61 61 61 61 60 61 61 59 58 57 56 64 66 68 68 68 67 67 66
57 56 57 57 59 60 59 60 60 60 62 64 65 66 65 64 64 62 62 63 62 62 62 61 61 60 59 60 60 61 61 60 59 58 57 58 64 66 67 68 68 67 66
57 57 56 57 58 59 58 58 58 61 63 64 64 66 65 65 64 62 63 62 62 62 62 61 60 59 59 61 60 60 61 61 60 59 57 57 59 63 65 67 67 67 66
58 57 58 59 58 58 58 58 59 62 62 64 63 63 64 66 65 64 62 62 63 62 62 60 60 59 59 58 57 57 58 59 60 60 58 57 56 59 62 64 64 65 64
56 58 58 58 58 59 58 60 61 61 61 66 61 62 64 66 66 64 63 62 62 61 61 61 59 59 58 57 58 56 56 56 58 63 59 57 57 56 55 61 62 62 63
56 58 58 59 59 59 59 60 58 57 59 61 62 63 64 65 65 64 63 62 62 61 59 58 58 58 58 59 66 61 56 55 55 55 57 60 56 55 55 55 53 54 60
56 57 57 57 58 59 58 57 58 58 59 61 62 65 65 65 65 63 63 62 62 61 58 58 57 57 57 59 58 57 56 55 55 54 54 54 56 56 53 53 51 50 53
57 58 58 58 58 59 60 61 61 61 62 64 63 63 64 65 65 64 64 62 61 59 57 57 56 54 57 58 56 55 52 51 52 53 52 54 53 54 55 55 53 51 50
57 58 60 60 60 61 62 62 62 63 62 62 63 63 63 64 65 64 63 63 61 59 58 57 58 57 55 57 56 55 49 48 47 50 52 54 55 52 52 53 54 53 51
59 61 62 63 63 63 65 63 62 62 62 63 61 62 62 64 63 62 61 61 61 61 60 58 58 57 56 53 53 56 52 51 47 44 50 53 52 55 51 50 51 52 52
63 63 64 64 64 65 65 65 65 64 64 65 64 62 61 62 62 61 61 58 58 58 57 57 57 55 54 52 51 48 47 48 48 46 45 49 52 52 49 49 48 49 51
64 65 65 65 65 66 66 66 65 66 64 63 63 62 62 62 62 61 60 59 59 58 57 55 55 54 52 50 49 47 47 46 47 47 45 46 48 49 52 52 47 47 47

GFSSE_sfc_temp_066.txt.gz
Temp
70 73 74 75 74 74 74 74 74 74 75 75 75 75 75 75 75 75 75 75 76 76 77 76 76 76 76 75 74 74 74 73 74 74 75 75 75 74 74 74 74 72 74
72 74 73 74 74 74 74 74 74 74 75 75 75 75 75 75 75 75 75 75 76 77 77 76 76 75 75 74 74 73 72 72 72 72 73 74 74 74 74 73 73 73 74
69 73 75 73 74 74 74 74 74 75 75 75 75 75 75 75 75 75 75 75 76 76 76 76 75 75 74 73 73 73 72 72 71 72 72 69 72 74 73 73 72 73 72
70 70 73 73 73 73 72 74 74 75 75 75 75 75 75 75 75 75 74 74 75 76 76 76 75 74 73 72 72 72 71 70 70 69 66 67 71 73 73 72 73 73 72
69 69 72 72 72 72 71 73 74 74 74 74 74 75 75 75 74 74 74 74 75 76 76 75 74 73 72 71 71 70 70 69 68 67 62 63 67 71 71 71 71 71 71
68 71 71 72 72 73 73 72 74 73 73 73 74 75 75 74 74 74 73 73 74 75 74 74 73 71 70 71 70 69 68 68 66 59 60 67 66 71 71 70 70 70 69
68 69 69 70 70 72 71 72 72 72 72 73 74 74 74 74 73 73 72 72 73 73 73 72 71 70 70 70 69 68 67 67 63 58 60 61 66 71 70 70 70 69 69
65 65 65 66 63 64 71 72 72 72 72 72 73 73 73 73 72 72 72 71 71 71 71 70 70 70 70 69 69 67 67 67 64 60 60 62 69 70 70 69 69 68 68
65 63 63 63 63 64 64 68 70 71 71 72 72 72 71 71 71 71 70 70 70 70 70 70 69 69 69 69 68 67 66 66 62 63 64 61 70 70 70 69 68 68 67
63 63 63 62 62 62 61 63 64 68 70 70 70 69 69 69 69 70 69 70 70 70 70 70 69 69 68 68 67 66 65 65 60 59 59 64 69 70 70 69 68 67 67
63 62 62 62 62 61 62 62 62 65 67 68 68 68 67 66 67 67 68 68 69 69 69 68 68 67 66 66 67 66 65 61 59 59 59 68 69 70 69 68 68 67 67
61 61 61 61 61 62 63 63 62 64 64 65 65 65 65 65 65 66 67 67 68 68 68 67 67 66 64 59 61 63 58 59 59 58 60 67 69 69 68 68 68 67 66
59 61 60 61 62 62 62 63 63 63 63 63 63 64 65 65 64 63 64 63 63 65 63 63 62 60 60 58 58 57 57 57 56 58 63 67 68 69 68 68 67 67 66
58 60 61 61 61 61 63 63 63 63 63 64 65 65 64 63 62 61 62 61 62 59 61 60 58 58 59 60 58 58 57 55 54 56 61 65 67 68 68 68 67 67 66
57 58 59 60 60 60 60 61 61 60 62 64 63 64 65 63 61 60 59 60 60 59 59 58 58 59 58 59 59 58 56 55 56 56 56 64 66 68 68 68 67 67 66
56 56 59 60 60 60 60 61 60 61 63 65 65 64 63 63 62 61 59 58 59 59 59 59 59 58 58 58 57 58 58 56 56 56 56 58 64 66 67 68 67 67 66
56 57 57 58 59 59 60 59 60 62 67 65 64 64 63 63 62 60 58 58 58 60 59 58 58 58 57 58 59 58 58 57 57 57 56 56 58 63 65 67 67 67 67
57 57 58 59 59 59 59 59 60 62 62 63 63 64 64 64 62 59 59 58 60 59 58 58 57 56 56 56 56 56 57 57 57 57 56 56 56 59 62 65 65 66 66
58 58 57 58 60 60 60 61 61 60 62 63 62 63 64 63 62 60 60 61 59 59 58 58 56 57 55 55 56 54 54 55 56 59 56 55 55 55 55 62 63 63 63
59 59 58 59 59 58 59 59 60 58 60 61 62 61 62 62 63 62 61 60 60 59 57 57 57 56 56 56 62 58 53 54 54 53 54 57 54 54 54 55 54 55 61
57 57 58 58 57 57 57 58 59 60 59 60 59 61 61 62 63 61 60 59 59 59 59 57 56 56 54 54 55 56 55 53 53 52 52 52 54 54 52 52 51 50 53
54 55 55 56 56 59 60 60 60 58 56 58 59 59 61 62 62 62 61 60 59 57 57 56 56 53 54 56 54 54 51 51 52 54 51 52 51 52 53 53 51 51 49
53 54 55 56 56 58 59 59 57 56 57 57 60 61 59 61 63 62 61 60 61 59 57 57 57 56 53 55 57 55 48 48 50 53 53 53 52 50 53 51 51 51 50
54 57 57 57 57 59 59 59 58 58 58 61 63 63 59 60 61 62 62 61 60 60 57 56 57 55 56 53 52 52 50 50 46 46 52 52 51 53 53 52 53 50 50
57 56 58 58 58 60 59 60 59 59 61 61 61 59 59 59 62 62 62 61 61 60 58 57 54 54 54 52 52 48 47 47 47 46 44 48 53 53 53 52 51 50 50
58 58 59 59 59 60 61 60 59 59 59 60 60 59 60 60 60 61 61 60 58 58 56 56 55 54 52 52 51 49 48 47 46 45 44 46 47 51 53 52 50 50 48

GFSSE_sfc_temp_069.txt.gz
Temp
71 72 73 74 74 73 73 73 74 74 75 75 75 75 75 75 75 75 75 75 76 77 77 76 76 76 76 75 74 74 73 73 73 74 75 75 74 74 75 73 73 72 73
71 72 73 73 74 74 74 74 74 74 75 75 75 75 75 75 75 75 75 75 76 77 76 76 75 75 75 74 73 73 72 71 71 72 73 73 74 75 74 74 73 72 73
71 72 73 73 73 74 74 74 74 75 75 75 75 75 75 75 75 75 75 75 76 76 76 76 76 75 74 73 72 72 71 71 71 72 73 72 72 74 74 73 73 72 73
68 71 72 72 73 73 74 73 74 75 75 75 75 75 75 75 75 75 75 75 75 75 75 75 75 74 73 72 71 71 70 70 69 68 65 68 71 72 72 72 72 72 71
68 68 72 72 72 73 73 72 72 73 74 74 74 75 75 75 74 74 74 74 75 75 75 75 74 72 71 71 70 70 69 69 68 65 61 62 67 71 71 71 71 70 70
69 68 69 70 71 71 73 73 72 71 73 73 74 74 75 74 74 74 73 74 74 75 74 73 72 71 70 69 69 69 68 67 65 59 59 67 66 71 71 70 70 69 70
66 67 68 67 66 67 66 71 72 71 72 73 73 74 74 74 73 73 73 73 73 73 73 72 71 70 69 68 68 68 67 66 62 58 60 61 66 71 70 70 69 69 68
64 66 66 66 66 66 66 67 70 70 71 72 73 73 73 73 72 72 72 71 71 71 71 71 70 69 68 68 68 67 66 66 62 59 60 63 69 70 70 69 68 68 68
63 63 63 63 64 64 65 64 68 69 70 72 72 71 71 71 70 71 70 70 70 70 70 70 69 69 68 68 67 66 65 65 58 61 63 62 70 70 70 69 68 68 67
63 62 62 62 61 61 62 63 65 66 69 70 71 70 69 69 69 70 69 70 70 70 70 70 68 68 68 66 66 65 64 64 57 58 58 66 70 70 70 69 68 67 66
62 62 62 61 61 62 62 62 62 62 68 69 69 68 67 66 66 65 68 69 69 69 69 68 67 67 66 66 65 65 63 58 58 57 59 68 69 70 69 68 67 67 66
59 61 61 61 61 61 63 62 60 61 64 66 66 66 64 64 64 66 67 68 68 68 68 67 66 65 65 62 62 62 57 57 57 57 59 67 69 70 69 68 67 67 66
60 60 60 61 62 62 60 61 61 62 62 62 63 64 64 64 64 63 62 60 62 64 63 62 61 60 58 58 56 55 55 55 55 57 62 67 68 69 69 68 67 66 66
59 59 60 61 61 62 62 61 62 62 62 62 63 64 64 62 61 60 61 59 60 60 61 58 56 55 56 56 56 55 55 54 54 55 60 65 67 68 68 68 67 66 66
58 59 59 60 61 61 61 62 61 60 61 63 63 64 64 62 61 59 57 58 59 58 58 57 56 56 55 56 55 55 54 54 55 55 56 64 65 67 68 68 67 67 66
57 58 59 60 60 60 60 60 60 61 61 62 62 64 64 63 61 60 57 57 59 57 57 56 56 56 55 56 55 55 54 54 55 55 55 58 64 66 67 68 68 67 66
57 57 58 59 59 60 60 59 60 62 63 62 62 62 62 62 62 59 57 57 57 57 57 56 56 55 54 56 55 55 54 54 54 55 55 55 59 63 65 66 67 67 66
57 57 58 60 59 59 58 58 59 60 61 63 62 62 62 62 61 59 58 58 57 58 57 55 55 54 53 54 53 53 53 54 55 55 55 55 56 58 61 64 66 66 66
58 57 57 58 58 59 60 60 59 60 61 63 61 63 61 62 61 61 60 58 58 57 56 57 55 55 53 52 53 52 52 53 54 57 55 54 54 55 55 61 63 64 64
58 58 58 58 58 57 59 59 58 58 60 61 61 62 62 62 62 61 59 58 58 57 56 56 56 54 54 53 59 56 51 51 52 52 53 56 54 54 54 55 56 56 61
58 57 57 57 58 59 59 58 58 57 59 59 61 62 61 62 62 59 59 58 58 58 58 57 55 54 53 53 52 52 51 52 52 51 50 51 53 53 52 52 52 51 53
56 57 57 58 58 61 60 61 61 61 59 59 60 61 61 61 60 59 58 58 57 56 57 55 55 53 53 53 53 51 48 50 50 51 51 50 53 53 51 52 51 50 49
55 56 55 57 56 57 56 60 59 59 59 59 59 59 58 59 60 60 60 59 58 57 56 55 56 56 54 54 56 55 48 48 50 52 52 52 53 52 52 50 51 53 50
52 53 53 54 54 55 55 54 56 58 59 59 57 58 58 58 59 60 60 60 59 59 58 57 57 54 54 52 52 52 52 51 47 47 52 52 52 53 51 48 51 52 52
52 52 53 55 55 56 55 55 54 53 56 56 56 56 56 56 58 59 60 59 59 59 59 57 54 54 55 52 52 48 48 47 48 47 45 48 51 52 52 52 52 51 52
52 53 54 54 55 57 56 55 55 55 55 56 55 56 58 56 57 59 60 59 59 58 57 57 56 54 53 51 51 49 49 47 47 46 45 46 48 51 52 52 51 50 50

GFSSE_sfc_temp_072.txt.gz
Temp
68 71 73 74 74 74 74 74 74 74 75 75 75 75 75 75 75 75 75 76 76 77 77 77 76 76 76 75 75 74 74 74 73 74 74 74 76 75 74 73 73 73 73
70 73 73 74 74 74 74 74 74 75 75 75 75 75 75 75 75 75 75 76 76 77 77 76 76 75 75 74 73 73 72 72 72 73 74 75 75 75 73 72 72 72 73
71 71 72 73 73 74 74 74 75 75 75 75 75 75 75 75 75 75 75 75 76 76 76 76 75 75 74 73 72 72 71 71 72 72 72 71 72 74 73 72 72 72 72
70 70 72 72 73 74 74 74 75 75 75 75 75 75 74 75 75 75 75 75 75 76 76 76 75 74 73 71 71 71 70 70 69 68 66 70 72 73 73 71 71 71 70
69 69 71 72 72 73 74 74 75 74 74 74 74 74 75 75 75 75 74 74 75 76 75 75 75 72 71 70 70 70 69 69 68 65 66 67 69 72 72 71 70 70 71
68 68 67 68 68 70 72 71 72 73 73 73 74 74 75 75 75 74 73 74 75 75 75 74 73 72 70 69 69 69 68 67 64 60 62 68 67 71 71 71 70 70 69
66 66 66 67 66 67 68 69 67 72 73 73 73 74 74 74 74 73 73 73 73 74 73 72 71 70 69 68 68 67 67 66 61 59 61 62 67 70 71 70 69 69 68
65 65 64 67 67 67 67 67 67 69 71 72 73 73 73 73 73 73 72 72 72 71 71 70 70 69 68 68 67 66 66 66 62 60 61 65 70 70 70 69 68 68 68
64 62 62 64 65 66 65 66 67 69 70 71 71 72 71 71 71 71 71 71 71 70 70 70 69 68 68 67 67 66 65 64 59 62 64 65 70 70 70 69 68 67 67
62 62 62 62 61 61 62 65 66 68 70 69 70 70 70 69 70 70 70 70 70 70 70 69 68 68 67 66 66 65 64 63 58 59 60 67 70 70 69 68 68 67 67
61 61 61 61 61 61 61 62 66 68 68 69 70 68 67 67 66 64 68 70 70 69 69 69 68 67 66 65 65 64 62 57 58 58 60 68 70 70 69 68 67 67 66
60 60 61 61 60 60 61 59 63 65 65 67 68 65 65 63 62 65 67 68 68 68 67 68 67 66 64 62 63 62 58 57 58 58 61 68 69 70 69 68 67 66 66
60 61 61 61 61 61 60 58 61 62 64 64 64 63 64 63 62 63 64 63 62 64 63 64 62 59 57 58 57 57 56 56 56 58 63 67 69 69 68 68 67 66 66
59 60 60 61 60 60 62 59 60 62 62 62 62 64 64 62 62 60 61 57 58 56 57 59 59 56 55 55 56 55 55 55 55 57 62 66 68 69 68 68 67 66 66
59 59 60 61 61 60 60 61 61 61 62 62 62 64 64 62 61 60 57 58 57 56 57 57 58 57 55 54 54 56 55 55 56 57 58 64 66 68 69 68 67 67 66
59 59 59 60 60 60 60 60 60 61 62 62 62 63 63 62 60 60 58 58 56 58 57 59 57 56 54 54 53 54 54 54 55 56 57 60 64 66 67 68 68 67 66
58 59 59 59 60 60 58 58 59 61 62 62 61 62 61 62 61 60 57 57 57 57 57 57 55 53 52 54 53 53 54 55 55 56 56 57 61 63 65 67 67 67 66
57 58 59 60 59 59 58 59 59 61 60 60 60 61 61 61 61 59 59 58 58 57 56 56 54 52 53 52 51 52 53 53 55 55 55 56 57 60 62 64 66 66 66
58 58 58 59 58 58 58 58 58 59 60 60 59 62 62 61 61 60 60 58 58 57 56 57 54 55 53 53 53 52 52 52 53 57 55 55 56 57 58 62 63 64 65
58 59 58 58 58 58 58 57 57 57 59 59 59 62 63 62 62 60 59 59 58 57 56 56 55 54 55 54 59 56 52 52 52 52 53 56 55 55 56 56 58 59 62
55 57 57 57 57 57 57 57 55 56 57 58 61 62 62 62 61 59 59 58 58 57 57 55 55 55 54 54 53 52 52 52 52 51 52 54 53 55 54 55 55 55 57
56 57 57 58 58 59 59 60 58 55 57 58 59 61 61 62 62 60 59 58 58 56 55 55 55 53 54 53 52 50 49 51 51 53 53 53 53 54 54 55 54 53 53
56 56 57 58 59 60 61 60 57 57 56 57 58 59 59 60 60 60 59 58 57 55 55 55 55 55 53 53 55 55 49 47 50 51 52 52 53 52 54 54 53 53 52
54 55 58 58 58 57 55 58 59 59 58 61 61 58 60 59 59 59 58 58 57 56 55 55 56 55 55 51 52 52 52 52 49 47 50 51 52 53 52 52 52 53 53
52 55 53 53 54 54 55 57 56 56 60 57 58 59 58 56 58 58 58 58 58 58 57 56 55 54 55 53 53 49 49 49 49 49 48 49 51 52 53 52 52 52 53
52 52 53 52 53 54 54 53 55 54 53 53 53 53 53 54 55 56 57 57 58 57 57 57 57 55 55 55 52 49 49 49 47 47 46 47 48 50 52 52 51 51 51

GFSSE_sfc_temp_075.txt.gz
Temp
74 79 73 74 74 74 74 75 75 75 75 76 76 75 75 76 76 76 76 76 76 77 78 78 77 76 76 76 75 74 74 74 74 74 75 76 75 75 74 74 74 75 73
76 79 73 74 74 74 74 75 75 75 75 76 75 75 75 75 75 76 76 76 77 77 77 77 77 76 75 75 74 74 74 73 73 73 75 75 75 74 74 73 73 75 73
75 77 78 73 74 74 75 75 75 75 76 75 75 75 75 75 75 75 75 75 76 77 77 77 76 75 75 73 73 73 73 72 72 73 75 80 78 74 73 72 72 72 72
73 76 78 72 73 74 74 74 75 75 76 75 75 75 75 75 75 75 75 75 76 76 77 76 76 75 73 72 71 71 71 71 70 72 79 80 78 73 73 72 72 71 71
69 73 77 72 73 73 74 74 75 75 75 74 74 75 75 75 75 75 74 75 75 76 77 76 75 73 71 70 70 70 70 70 70 76 78 77 76 74 72 71 71 71 70
70 71 70 70 71 70 71 74 74 74 73 74 74 74 75 75 75 74 74 74 75 76 75 75 73 71 70 69 69 69 68 69 71 78 76 72 72 72 71 71 69 70 69
69 68 68 69 69 71 70 71 70 73 73 73 74 74 74 75 74 73 73 74 74 74 74 73 71 70 69 68 68 68 67 68 76 76 74 70 71 71 71 70 70 69 69
67 67 68 69 69 69 70 69 68 69 69 70 72 73 74 73 73 73 73 73 73 73 72 71 70 69 68 68 68 66 66 68 74 75 74 72 71 70 70 70 69 68 68
66 66 66 66 69 68 68 68 68 69 70 70 71 72 72 72 72 72 72 72 72 71 70 70 69 68 68 68 67 66 65 68 74 74 74 74 70 70 70 69 68 68 68
63 63 64 65 65 65 65 66 68 68 69 70 71 71 70 70 71 71 70 70 71 70 70 69 68 68 67 66 66 65 65 67 74 74 75 73 70 70 70 69 68 68 67
62 63 64 63 64 65 66 67 68 68 69 68 69 69 69 71 72 72 70 69 70 69 69 68 68 67 66 66 65 64 66 73 73 74 75 69 70 70 69 68 68 67 67
60 62 64 66 65 64 66 66 66 66 68 68 68 67 68 69 70 70 70 68 69 68 68 68 67 66 68 71 70 66 72 71 72 73 74 68 70 70 69 68 67 67 66
63 62 62 62 62 63 66 64 64 64 66 64 64 65 66 70 70 68 68 69 71 70 72 69 69 72 70 71 70 70 70 71 73 74 71 68 69 70 69 68 67 67 66
61 62 62 62 63 65 64 64 63 62 63 62 63 65 67 67 66 64 65 66 69 72 71 69 70 68 65 68 69 68 69 71 72 73 71 66 68 69 69 68 67 67 66
61 61 61 62 62 62 64 63 64 62 61 62 62 65 68 65 63 64 63 66 68 69 69 67 68 68 67 68 68 68 68 69 70 71 72 65 66 68 69 68 68 67 66
63 61 61 62 62 61 62 61 62 62 61 62 61 64 65 64 62 62 61 63 65 68 68 67 67 68 68 69 67 68 68 69 70 70 72 70 64 66 68 68 68 67 67
60 61 60 62 61 61 60 60 61 62 62 61 62 65 67 65 64 63 63 64 64 66 64 65 66 67 67 68 67 67 68 68 69 69 70 71 69 63 65 67 67 67 67
60 59 61 61 60 59 60 61 61 61 62 61 64 66 65 65 65 63 66 64 65 64 63 62 62 65 66 66 65 67 67 67 67 68 68 69 70 71 65 65 66 67 66
61 62 59 59 58 59 59 63 61 60 60 60 60 64 64 65 65 66 66 65 62 61 62 64 64 65 64 65 66 65 64 64 65 67 66 66 67 68 70 65 64 64 65
61 60 60 59 58 59 60 60 59 59 60 59 59 62 62 65 62 64 62 60 62 63 64 64 64 65 65 64 65 64 64 65 66 65 65 66 67 67 68 68 69 68 62
59 59 59 58 58 58 58 59 58 58 58 59 59 61 62 63 63 60 61 60 63 65 64 63 63 63 62 62 62 62 63 62 61 63 63 64 62 63 65 62 64 67 69
58 59 58 58 59 61 60 65 60 58 59 59 59 60 61 61 61 62 64 63 62 62 62 61 62 61 62 61 62 62 60 62 63 63 63 62 57 64 58 58 59 60 63
57 57 59 58 59 61 61 59 57 57 57 57 58 59 61 62 62 63 64 63 64 64 62 61 62 63 61 60 62 64 55 55 59 57 57 55 56 60 64 60 57 59 60
60 59 62 60 60 61 61 60 57 56 55 58 59 60 61 62 63 66 64 63 63 62 63 62 64 64 64 61 60 56 59 63 58 53 61 61 54 55 55 55 54 57 62
60 59 61 61 61 62 63 64 60 58 59 59 58 58 61 62 63 63 63 65 63 64 63 63 61 61 62 62 55 53 54 56 57 57 55 61 59 60 59 61 54 56 59
59 59 59 61 62 62 62 64 63 60 62 60 60 60 61 61 61 63 64 64 66 65 65 64 63 62 62 58 60 62 61 59 58 56 55 55 52 59 59 60 58 56 54

GFSSE_sfc_temp_078.txt.gz
Temp
83 90 74 75 75 75 75 75 75 75 75 76 76 76 76 76 76 76 76 76 77 78 78 77 77 76 76 76 75 74 74 74 74 75 76 76 76 75 75 74 75 77 74
86 89 73 74 74 74 75 75 75 75 75 76 75 76 76 76 76 76 76 76 76 77 78 77 76 76 75 75 74 74 73 73 73 74 74 75 75 74 74 73 73 74 72
82 86 82 73 74 74 75 75 75 76 76 76 75 75 76 76 76 76 75 75 76 76 77 77 76 75 75 74 73 73 73 73 73 74 77 79 76 74 73 72 72 72 72
79 86 86 72 74 74 74 75 75 76 76 75 76 75 76 76 76 76 75 75 76 76 77 76 76 75 73 72 72 72 72 72 72 74 84 79 77 73 73 72 72 72 72
74 85 83 72 73 74 75 74 75 75 75 75 75 75 75 75 75 75 74 74 75 76 76 76 74 73 72 71 71 71 71 71 72 80 82 80 76 74 73 72 71 72 72
70 76 72 71 72 74 74 74 74 74 74 74 74 75 75 75 75 75 74 74 75 76 76 75 73 71 70 70 69 69 70 71 73 83 77 78 78 72 72 71 70 70 70
75 72 76 70 71 71 73 74 72 73 73 73 74 74 75 75 75 74 74 74 75 75 74 73 71 70 69 69 69 69 69 71 84 82 80 79 76 71 72 71 70 70 69
74 71 75 71 70 71 70 70 70 73 72 72 74 73 74 74 74 73 74 74 73 73 72 71 70 69 69 68 68 68 69 71 81 80 80 79 72 71 71 70 69 69 69
70 71 71 74 69 68 67 68 68 69 72 71 70 72 72 72 72 73 72 73 72 71 70 70 69 68 68 68 67 67 67 69 81 80 81 77 71 71 70 70 69 69 68
66 66 67 71 69 73 74 66 68 68 68 69 70 69 70 70 71 71 71 71 71 70 69 69 68 68 67 67 66 65 67 69 81 81 81 77 70 71 70 69 69 68 68
63 64 65 65 68 69 69 70 68 68 68 68 69 69 67 72 71 74 73 69 69 69 69 68 67 67 66 66 65 66 67 81 81 82 80 69 71 71 70 69 68 68 67
63 63 64 65 66 69 68 70 72 74 73 70 69 67 69 69 69 76 71 68 68 68 68 67 66 66 70 76 74 68 81 80 81 81 77 69 70 71 70 69 68 67 67
68 64 65 66 67 65 65 67 66 69 69 67 67 65 67 67 71 73 72 74 73 71 76 73 71 78 78 78 76 78 78 79 81 80 72 68 70 70 69 68 68 67 67
71 69 68 65 67 65 64 65 66 66 68 66 63 63 63 65 70 72 74 76 76 79 76 76 77 77 76 77 76 76 77 79 80 80 72 67 68 69 69 69 68 67 66
69 71 69 70 68 69 70 69 65 63 65 62 62 64 64 65 67 70 72 74 75 78 78 77 78 76 75 75 76 76 76 77 77 79 76 66 67 69 69 69 68 67 67
72 68 69 67 66 68 68 66 63 62 61 61 61 61 64 65 66 68 69 69 72 75 78 77 76 76 76 76 75 76 76 77 77 77 78 73 65 67 68 69 68 68 67
73 70 65 66 65 66 67 62 62 64 62 60 59 62 64 67 67 67 68 67 68 74 74 75 75 77 75 77 75 75 76 75 76 76 77 76 72 64 66 67 68 68 67
71 70 66 68 63 65 65 64 61 62 61 60 60 63 64 66 67 67 67 66 67 68 70 72 74 73 74 75 74 75 76 76 75 74 76 77 76 76 66 65 66 67 67
73 69 67 63 61 60 63 61 61 61 61 60 61 64 65 67 67 68 69 69 70 70 68 70 72 72 72 74 74 75 75 75 74 76 74 73 74 74 74 65 64 64 65
71 70 67 61 60 60 61 61 60 60 60 60 62 66 69 71 71 73 74 71 72 71 70 72 70 72 73 74 75 73 73 74 74 74 73 73 72 71 73 73 71 69 63
67 67 63 58 59 60 60 62 58 58 58 59 63 68 69 70 72 68 69 70 71 69 70 68 70 69 70 71 70 70 70 71 71 71 71 71 72 71 72 72 72 71 65
65 64 61 60 60 63 66 68 62 60 60 60 61 65 64 65 64 64 67 68 69 66 63 64 69 68 69 68 66 69 63 66 69 69 71 70 67 66 64 69 67 67 66
64 64 62 61 60 62 64 67 62 60 59 58 59 60 63 64 66 64 64 67 64 67 66 65 65 65 65 63 65 67 58 58 61 66 66 60 66 63 62 70 71 65 63
67 65 63 63 61 62 64 64 64 62 57 60 59 61 62 64 64 67 65 68 66 68 69 69 69 67 70 65 65 67 65 63 56 60 69 61 60 59 57 65 62 66 63
70 62 63 64 62 62 63 66 65 62 63 62 59 59 61 63 66 64 65 66 69 70 70 70 68 67 69 68 67 66 64 57 58 59 60 63 67 68 68 60 68 69 63
71 66 65 64 63 65 63 63 63 61 58 58 58 59 60 61 61 64 66 66 68 67 69 69 69 67 67 67 67 66 66 60 64 64 63 64 60 59 64 62 68 68 66

GFSSE_sfc_temp_081.txt.gz
Temp
90 85 75 76 75 76 76 75 75 75 75 75 75 76 76 76 76 76 76 76 77 77 78 77 77 77 77 76 75 75 75 74 75 75 75 76 76 76 75 75 75 76 74
91 87 73 75 75 75 76 75 74 75 75 76 75 75 75 75 75 76 76 76 77 77 77 77 76 76 76 75 74 74 74 73 73 73 74 75 75 74 74 73 73 75 73
84 81 83 74 75 75 75 75 75 75 76 76 75 75 75 75 76 76 76 76 77 77 77 76 76 76 75 74 73 73 73 73 73 74 76 77 76 74 73 72 72 73 72
84 87 87 73 74 75 75 75 75 76 76 75 75 75 76 76 76 75 75 75 75 76 77 76 76 75 74 72 72 73 73 73 74 75 80 77 76 73 73 73 72 72 72
84 83 84 73 73 74 74 74 75 75 75 75 75 76 76 76 75 75 74 74 75 76 76 76 75 73 72 71 71 72 72 73 73 78 80 76 75 73 73 73 73 72 72
80 83 74 71 72 74 74 75 74 75 74 74 75 75 76 76 75 75 74 74 75 76 76 75 73 71 70 70 71 71 72 72 73 84 82 78 77 72 72 71 71 71 71
81 79 80 70 72 73 75 75 74 72 70 73 74 75 75 75 75 74 74 74 74 75 74 73 71 70 70 70 70 71 71 71 84 83 81 77 74 72 71 71 70 70 70
79 78 78 72 71 72 72 70 70 71 66 70 74 74 74 74 73 73 73 73 73 73 72 71 70 70 69 69 70 69 70 71 83 82 80 77 72 72 71 70 69 69 69
79 78 76 77 74 68 67 67 68 68 67 69 73 72 72 72 72 73 73 73 72 71 70 70 69 68 68 68 68 68 68 70 82 82 79 76 71 71 71 70 69 69 69
72 73 76 74 72 71 70 67 68 68 67 70 70 69 68 69 71 72 71 71 71 70 70 69 68 68 67 67 67 67 68 70 82 81 80 74 71 71 70 70 69 68 68
66 66 68 72 71 70 71 70 67 66 68 68 70 68 67 68 70 73 73 70 69 69 68 68 67 66 66 66 67 67 67 83 82 82 77 69 71 71 70 69 69 68 68
69 65 67 71 69 69 71 74 76 77 77 73 72 72 69 69 69 73 70 68 68 68 67 67 66 66 69 75 75 69 80 82 83 79 75 69 70 71 70 69 68 68 67
72 70 68 66 71 72 70 72 74 73 73 72 72 69 66 67 66 69 68 69 71 69 72 71 70 76 77 77 76 79 80 81 82 78 71 68 70 70 70 68 68 68 67
73 71 69 67 69 71 73 72 74 73 73 71 71 66 65 64 64 66 67 70 74 75 73 73 75 78 77 77 78 78 79 81 81 77 71 67 69 70 70 69 68 67 67
75 72 69 71 66 68 70 73 69 72 73 71 68 68 64 64 65 65 67 73 76 78 76 76 78 78 77 77 78 77 79 80 79 77 73 66 67 69 69 69 68 68 67
78 77 70 68 67 71 72 71 67 67 68 67 64 66 64 63 63 64 65 69 77 79 78 78 77 77 77 77 76 77 78 79 79 77 75 71 65 67 68 69 68 68 67
79 80 72 70 67 70 68 65 63 63 61 60 60 62 62 62 63 67 65 69 71 77 77 73 75 77 77 77 76 77 78 77 78 77 75 73 70 64 66 68 68 68 67
79 78 72 69 69 68 67 62 62 60 59 59 59 59 61 62 65 64 65 68 72 73 75 73 72 72 75 76 75 75 76 77 76 77 78 76 74 73 66 66 66 67 67
78 78 72 69 69 68 67 62 61 60 59 59 59 58 59 61 62 63 66 68 69 71 68 69 70 70 72 74 75 75 76 77 75 77 77 77 75 75 73 64 64 64 66
79 77 73 69 64 64 61 62 60 59 59 59 62 59 60 61 63 65 66 65 67 67 68 70 68 70 71 74 76 75 75 76 76 75 75 76 76 74 74 71 68 67 63
76 73 69 64 61 61 60 59 58 57 57 58 61 62 62 66 67 68 70 70 70 68 69 70 70 69 71 74 72 71 72 73 73 74 75 74 73 72 72 73 70 70 68
73 72 69 67 63 62 62 62 60 59 58 59 61 63 64 66 69 73 72 70 70 69 70 69 69 68 70 72 69 69 63 67 70 71 72 71 70 73 72 68 67 70 71
73 71 69 64 63 64 64 62 60 59 58 57 58 62 65 65 69 71 69 69 67 71 70 70 71 70 68 69 69 66 60 59 65 69 67 70 70 69 67 65 67 68 70
73 72 67 64 63 64 64 61 59 58 56 59 60 62 66 67 66 67 68 67 67 68 69 68 71 69 68 64 63 64 68 67 58 53 62 65 63 59 62 64 66 69 70
75 72 67 65 64 66 65 62 62 60 60 60 61 62 63 64 65 66 65 65 64 65 69 67 68 67 68 65 65 66 65 65 64 62 58 60 66 66 68 65 67 68 67
77 72 69 67 65 65 66 64 64 62 59 57 58 59 61 62 62 63 66 62 63 64 66 68 68 66 66 66 65 65 65 64 63 61 59 63 62 62 64 63 63 65 69

GFSSE_sfc_temp_084.txt.gz
Temp
82 78 74 75 76 76 75 74 74 74 75 75 75 75 75 75 75 75 76 76 76 77 78 77 77 77 76 76 75 75 75 74 74 75 76 76 76 76 75 74 74 74 74
83 80 74 75 75 76 75 74 74 74 75 75 75 75 75 75 75 76 76 76 77 78 77 77 77 76 76 75 74 74 74 73 73 74 74 75 75 75 74 73 73 73 73
82 79 79 74 75 75 75 75 75 75 76 75 75 75 75 75 75 75 76 76 77 77 77 77 76 76 75 74 74 73 73 73 73 74 74 73 73 74 74 73 73 72 72
85 83 80 74 74 75 75 74 74 75 76 75 75 75 75 75 75 75 75 75 75 76 77 77 76 75 74 73 73 73 73 73 73 74 74 74 74 74 73 72 72 72 72
85 85 80 73 73 74 74 74 74 75 75 75 75 75 76 76 75 75 74 74 75 76 77 76 75 73 72 72 72 72 73 73 74 75 72 71 71 73 73 73 72 72 72
81 83 71 71 73 74 74 74 74 74 73 74 74 75 76 76 75 74 73 73 74 75 76 74 73 72 71 71 71 72 72 72 74 74 71 72 71 72 72 72 71 71 71
80 81 75 70 72 74 74 74 71 70 68 66 71 74 75 75 74 74 73 73 73 74 74 73 71 71 71 71 71 71 71 71 77 73 70 68 70 71 72 71 70 70 70
79 78 78 71 71 72 71 69 68 67 67 67 65 68 74 74 73 73 73 73 73 72 72 71 70 70 70 70 70 70 69 69 77 72 70 69 71 72 71 70 70 69 69
78 77 74 74 72 68 68 68 68 68 68 67 66 64 72 72 72 72 72 72 71 71 70 70 69 69 69 69 69 68 68 71 74 72 71 69 71 71 71 70 69 69 69
73 72 71 72 71 70 67 67 68 68 68 68 66 67 69 70 71 71 71 70 70 70 69 69 68 68 68 68 67 68 69 69 73 71 69 68 71 71 71 70 69 69 69
68 67 71 69 70 69 69 69 67 68 68 67 67 66 67 69 67 70 70 69 69 69 69 68 67 67 67 67 68 68 67 73 73 69 67 69 71 71 70 69 69 69 68
67 66 69 70 67 69 70 69 69 69 68 67 65 66 67 67 67 69 68 68 68 68 67 67 66 66 68 65 65 66 67 73 71 68 67 68 71 71 70 69 68 68 68
70 68 68 68 68 66 67 68 69 67 67 68 66 66 67 66 66 65 65 66 66 67 66 65 65 68 67 66 66 67 68 74 70 68 67 68 70 71 70 69 68 68 67
71 71 68 68 68 69 67 68 67 67 67 67 67 67 66 65 64 64 64 64 66 66 65 65 66 66 66 67 68 69 70 73 69 67 65 67 68 70 70 69 68 67 67
72 68 69 69 67 68 68 68 68 67 67 67 67 67 66 65 64 65 65 63 67 68 67 65 67 69 67 67 68 69 70 71 68 67 64 65 66 69 69 69 68 68 67
76 70 69 69 67 68 67 68 67 68 67 66 66 67 66 65 63 64 63 64 69 69 69 68 68 68 68 67 67 69 71 71 69 67 65 63 65 67 68 69 68 68 67
77 72 67 66 66 66 68 66 65 65 65 65 66 66 65 65 64 63 63 63 69 70 69 68 69 67 66 69 67 67 68 70 70 67 66 64 63 64 65 67 68 67 67
78 75 69 68 66 66 64 63 60 60 60 60 60 65 65 64 65 63 62 62 64 66 67 69 66 64 64 64 64 65 67 69 69 68 67 66 64 66 64 65 66 67 67
78 75 69 66 66 65 63 62 59 59 58 58 59 59 63 62 63 63 62 62 62 62 64 66 65 63 63 64 65 64 66 66 66 71 69 67 65 65 64 64 64 64 65
76 74 68 67 66 65 63 60 59 58 58 58 57 58 59 60 60 60 59 60 61 61 63 63 63 63 63 64 71 68 65 65 65 64 67 70 68 67 66 64 63 63 62
74 72 67 65 65 63 61 58 57 56 56 56 57 58 58 59 60 59 58 59 60 60 61 63 62 62 62 64 62 62 63 64 63 64 64 64 65 66 65 64 63 63 62
72 70 66 66 64 63 62 60 59 58 58 57 57 59 59 59 60 60 61 61 62 61 61 62 62 60 61 63 59 58 55 58 62 63 63 63 63 63 63 63 63 63 64
70 69 65 65 63 63 62 60 59 58 57 56 57 58 58 60 62 64 63 64 64 63 62 62 61 61 59 60 61 58 53 52 55 60 61 60 61 60 62 64 64 63 63
70 70 68 64 63 63 62 59 57 56 54 57 58 59 59 62 63 64 64 65 63 63 62 62 63 63 61 60 58 60 57 58 53 51 57 59 60 59 58 59 59 60 61
72 68 67 64 63 64 62 60 58 57 59 59 58 58 59 62 63 64 65 64 63 63 62 64 63 61 60 59 59 58 57 58 57 55 51 54 58 60 60 59 58 59 63
72 68 65 62 62 63 62 60 59 59 58 56 58 58 59 60 61 63 63 63 63 62 63 62 61 61 60 60 60 59 58 57 56 54 52 54 55 57 60 61 59 60 60